ECMWFNIL_sfc_temp_063.txt.gz
Temp
69 68 67 69 71 71 69 69 70 70 71 71 71 71 71 70 69 70 69 69 70 70 70 70 70 70 70 70 70 72 73 71 71 71 70 70 70 70 69 69 69 71
68 67 68 68 67 68 69 70 70 70 69 70 71 70 69 68 68 70 69 69 70 69 69 69 70 70 70 71 70 71 71 70 70 70 69 69 70 70 69 69 70 71
68 67 66 65 65 66 68 69 69 69 69 68 68 69 68 67 68 69 70 70 70 69 68 69 69 69 69 70 69 70 71 70 69 69 70 70 69 70 70 70 70 69
66 67 67 67 67 67 67 67 67 67 67 67 68 68 68 67 68 68 68 69 70 69 68 69 68 69 70 69 69 70 69 69 69 69 69 69 69 70 69 70 70 70
66 67 68 68 68 68 67 67 66 66 67 68 67 68 68 67 68 69 68 68 69 69 69 69 69 69 69 70 70 69 69 69 68 69 70 68 68 69 68 69 69 69
67 69 69 68 67 68 68 69 68 68 68 67 67 68 67 68 69 69 69 69 69 70 69 70 70 70 70 70 70 69 70 70 69 70 70 69 69 69 70 70 69 69
65 66 67 68 68 69 69 69 68 68 68 69 68 67 67 68 69 70 71 70 71 71 71 70 70 69 70 71 70 69 69 69 70 71 71 70 69 67 69 70 71 70
64 66 67 68 67 68 68 68 68 67 67 68 68 68 69 70 71 69 70 71 71 71 71 71 71 71 70 71 71 69 68 69 70 71 71 70 69 69 69 69 69 70
65 65 65 66 66 67 68 68 67 67 69 69 69 68 69 70 70 70 70 71 71 70 71 70 71 71 70 71 70 71 71 69 69 71 71 71 70 70 71 70 69 69
64 65 65 65 65 66 66 67 67 67 68 69 69 69 69 68 70 71 70 71 70 70 71 71 70 70 70 72 72 72 72 71 71 70 71 71 71 72 72 71 71 69
63 64 64 65 65 64 64 66 67 67 68 70 69 69 69 69 69 70 70 71 70 71 71 71 71 71 71 70 70 70 71 71 71 71 70 71 71 71 69 72 71 71
63 63 64 65 64 64 64 65 66 67 67 68 70 69 68 69 69 69 71 72 72 73 73 72 72 71 72 72 71 70 70 70 70 70 70 71 70 71 71 71 72 72
63 64 64 65 63 63 64 66 67 67 69 68 69 68 68 68 68 69 69 71 71 71 72 72 71 71 71 70 71 71 71 71 70 70 70 70 70 71 71 71 72 72
63 64 64 65 65 65 66 66 66 67 67 69 69 68 67 68 68 69 69 70 70 70 70 70 70 71 71 71 71 71 70 70 70 69 70 70 69 70 70 71 70 71
60 62 64 65 66 67 67 66 65 64 63 63 65 67 67 67 67 69 69 70 70 70 70 70 70 69 69 69 70 70 70 70 70 71 70 70 70 70 70 70 71 70
63 62 63 63 65 65 65 65 64 62 61 61 60 62 64 64 65 67 69 70 70 69 69 68 68 69 61 54 57 70 71 71 69 70 70 70 69 69 68 68 69 69
63 63 63 62 61 60 61 61 60 60 61 62 62 62 60 59 59 65 67 67 69 69 68 67 67 63 45 44 45 47 64 69 69 69 69 69 70 70 69 68 68 67
60 61 60 58 58 57 56 56 57 58 59 60 61 60 59 59 60 62 64 65 66 67 66 66 66 48 41 41 41 41 48 65 69 69 68 69 70 70 70 70 69 68
59 58 58 57 56 57 57 58 59 58 58 58 58 58 59 60 60 62 64 65 66 67 66 66 64 42 41 40 40 41 41 53 69 68 68 68 69 69 69 69 69 68
60 59 57 56 56 58 59 60 60 59 58 59 58 58 58 58 60 61 62 63 64 65 65 63 60 43 40 40 40 39 40 50 67 66 67 68 69 69 69 69 68 69
59 59 58 57 58 59 59 59 58 58 58 58 61 60 59 59 60 61 60 61 62 63 64 63 54 39 39 39 39 40 41 49 65 64 67 67 68 67 67 66 66 66
56 56 55 55 56 57 57 56 54 53 54 56 57 58 58 59 59 60 60 62 62 63 64 63 52 39 39 40 39 41 40 60 64 65 65 66 66 66 66 66 66 66
55 54 53 53 55 55 54 54 54 54 55 57 57 57 56 55 55 55 56 58 59 60 61 62 56 43 39 39 40 39 48 63 62 65 65 64 65 65 65 66 65 65
53 54 54 53 53 53 53 53 54 55 55 56 56 55 54 55 57 57 56 55 55 54 54 57 56 45 40 40 41 40 47 60 63 63 63 63 64 63 65 65 64 55
52 52 52 52 51 50 50 51 53 54 55 56 56 56 55 56 56 56 55 56 56 55 51 55 55 48 39 39 40 40 48 56 58 61 61 62 63 63 63 64 64 60
52 51 50 50 51 50 50 50 51 52 53 54 55 57 55 54 53 53 53 52 53 55 54 53 53 50 42 38 39 40 41 51 55 57 59 58 59 59 59 61 62 64

ECMWFNIL_sfc_temp_066.txt.gz
Temp
75 76 77 77 77 77 77 77 77 77 77 77 77 76 77 77 78 78 77 77 77 77 77 77 77 77 77 77 76 78 77 76 76 77 76 76 76 75 74 74 73 71
73 76 77 77 77 78 78 78 77 77 76 77 77 78 78 77 77 77 76 76 77 77 77 76 77 77 77 77 76 76 77 76 75 78 76 75 75 75 74 74 74 74
72 73 75 76 76 76 76 77 77 77 77 77 77 77 77 77 76 76 76 77 77 77 76 76 76 76 76 77 76 76 76 75 75 76 76 76 76 75 75 75 75 74
72 73 75 76 76 75 76 76 76 77 77 76 76 77 77 76 76 75 76 77 77 76 76 76 76 77 78 77 76 76 76 76 76 76 75 75 75 76 75 76 75 76
72 74 75 76 76 76 76 75 76 76 76 76 76 76 76 76 76 77 76 77 77 76 76 76 76 76 76 77 77 75 76 76 75 76 75 74 75 76 75 75 75 75
73 75 76 76 76 75 75 76 77 76 76 75 75 76 76 76 77 77 77 77 77 77 76 76 76 76 77 77 76 76 77 78 76 76 76 75 75 76 77 76 75 75
73 73 74 76 76 76 75 76 76 76 76 74 75 75 77 76 77 77 78 77 77 77 77 76 76 76 77 77 77 76 77 77 78 78 76 75 75 75 77 77 77 77
73 73 74 75 74 74 75 75 75 75 76 76 75 76 77 77 78 77 78 77 78 78 77 78 77 77 77 78 77 76 75 77 78 78 77 76 75 75 76 77 76 76
72 73 73 73 73 74 73 73 74 75 77 75 75 76 77 77 77 77 77 78 78 77 78 78 78 77 77 77 76 77 77 76 77 77 76 76 74 75 77 77 76 75
72 73 73 73 73 74 74 74 75 75 76 76 76 76 76 77 77 78 77 77 77 77 77 77 77 76 77 78 78 78 77 77 77 77 77 77 77 77 77 76 76 75
71 72 72 73 74 74 73 74 75 75 76 77 76 76 77 76 77 78 77 77 76 77 77 77 77 78 77 77 76 77 77 76 77 78 77 77 77 77 75 77 76 76
70 71 72 73 73 73 73 74 75 75 76 76 77 76 76 76 76 77 78 78 78 79 79 78 79 78 78 78 78 77 77 76 77 77 77 78 77 78 79 78 77 77
70 72 73 73 73 73 73 74 75 75 76 76 77 76 76 75 76 77 77 78 79 78 78 78 78 78 78 77 78 78 77 77 76 76 76 76 77 78 78 78 79 79
71 73 73 73 73 73 74 74 74 75 76 76 76 75 75 76 76 76 76 78 77 78 78 78 77 78 78 78 79 77 76 77 76 76 76 76 76 77 77 78 77 78
71 71 71 71 73 73 73 73 74 74 75 75 75 75 75 76 76 76 76 76 77 76 77 77 77 76 77 78 78 76 78 76 77 77 76 76 76 77 77 77 78 77
65 65 66 67 71 72 73 73 73 73 73 73 73 74 74 74 75 75 76 75 75 76 76 75 75 75 60 46 55 76 78 78 76 76 77 76 76 76 75 76 77 77
66 64 64 63 65 70 71 72 72 72 72 72 72 72 71 72 72 72 74 75 75 75 74 74 74 69 43 44 46 50 71 76 76 76 77 76 76 75 75 75 76 77
64 63 64 63 61 64 65 66 67 69 69 69 69 70 71 71 70 70 70 70 71 73 72 73 70 46 40 42 42 42 51 73 77 76 75 76 76 76 76 76 76 75
66 65 63 63 63 63 62 62 62 62 63 65 66 66 66 66 67 67 66 66 67 69 71 70 65 42 41 41 41 41 41 55 79 76 75 76 76 76 76 76 76 75
68 67 65 64 64 64 64 62 61 60 61 61 62 63 63 63 63 63 65 66 67 68 67 63 56 44 40 40 41 40 41 47 77 75 75 76 76 76 75 75 74 75
66 66 65 64 63 62 61 61 60 60 63 65 66 64 64 64 63 62 63 65 67 67 64 58 52 40 40 39 41 40 42 45 72 72 74 74 74 74 74 74 74 73
64 65 65 66 65 63 60 59 60 60 61 63 64 64 64 65 65 66 65 65 66 67 64 60 52 39 38 40 40 43 40 61 72 72 73 73 74 74 73 74 74 73
60 60 60 62 63 61 60 58 58 61 64 66 64 64 64 63 61 61 63 63 64 66 64 60 55 42 38 39 40 38 46 71 71 73 73 72 72 72 73 73 73 73
61 60 58 57 56 58 58 58 58 61 62 64 63 63 63 62 62 60 60 60 61 63 64 60 54 44 38 39 39 39 44 66 72 72 71 71 72 71 73 73 68 54
63 63 62 60 58 59 60 61 61 60 61 61 60 59 59 63 64 62 61 61 60 58 54 58 56 49 39 39 38 39 49 66 69 71 69 69 70 70 70 71 70 60
62 61 60 60 60 60 61 60 61 61 61 60 60 60 58 58 62 61 59 59 60 59 58 59 59 55 44 37 38 40 39 56 67 67 66 66 67 66 65 68 69 67

ECMWFNIL_sfc_temp_069.txt.gz
Temp
70 70 67 64 64 67 74 76 77 77 78 79 77 77 78 78 79 79 79 79 79 79 79 79 79 78 79 78 78 78 77 76 77 77 77 75 72 71 71 71 72 72
68 68 65 66 68 74 76 77 77 78 78 78 78 78 79 79 78 79 78 78 79 79 79 79 79 79 78 78 77 77 77 77 76 79 76 75 71 72 71 70 71 72
68 66 67 68 72 75 76 77 78 78 78 79 79 79 78 78 78 79 78 79 79 78 78 78 78 78 78 78 77 77 77 75 76 77 76 76 76 76 75 74 71 71
69 69 70 73 75 76 76 77 77 78 78 78 78 78 79 78 78 78 78 79 78 77 77 78 77 78 79 78 77 77 77 77 77 77 76 76 76 76 75 75 73 73
72 72 75 76 76 77 77 77 77 78 77 78 78 78 78 77 77 78 78 78 78 77 77 77 78 78 78 78 78 77 76 77 77 77 76 75 76 76 76 75 75 73
73 76 77 77 77 76 76 77 78 78 77 76 76 78 78 78 79 78 78 77 78 77 77 77 78 78 79 78 77 77 77 77 77 77 77 76 76 77 78 76 75 72
72 76 75 76 77 77 76 77 77 77 77 76 78 77 78 78 78 78 79 78 79 78 78 77 77 77 78 77 78 78 78 77 78 78 77 77 76 75 78 76 74 73
75 76 76 76 75 76 76 77 77 77 77 77 76 78 78 79 79 79 79 79 79 79 78 79 78 79 79 79 78 77 77 78 78 78 77 76 76 76 76 77 75 75
75 75 75 75 74 74 75 76 77 77 78 77 77 77 78 78 79 78 79 79 79 79 79 79 79 79 78 79 77 77 78 78 78 77 76 75 75 76 78 78 75 74
74 74 75 74 74 74 74 75 76 76 78 77 77 77 77 78 79 79 79 79 78 79 79 79 79 78 79 79 79 79 78 78 78 77 77 76 75 77 78 77 76 75
74 74 74 73 74 74 74 75 75 76 76 76 76 76 78 78 78 80 79 79 77 79 79 79 79 79 79 79 78 78 79 78 78 79 78 78 77 77 75 76 75 75
71 74 74 74 74 74 74 75 76 76 75 74 76 77 77 78 78 79 80 80 80 80 80 80 80 80 80 79 79 79 78 78 78 78 78 79 78 78 78 78 77 77
71 73 75 75 75 75 75 76 77 76 76 76 77 77 77 77 78 79 79 80 80 80 80 80 80 79 79 78 79 79 78 78 77 77 78 78 79 79 79 78 78 78
60 65 74 76 76 76 76 76 76 76 77 77 77 77 76 78 78 78 78 80 80 80 80 80 79 80 80 79 80 79 77 78 77 77 77 77 78 79 79 79 79 79
64 64 64 72 74 72 75 75 76 76 77 77 77 76 77 78 78 78 78 79 79 79 79 79 78 78 77 76 79 78 78 77 77 78 77 77 77 78 78 78 79 79
66 65 64 63 72 73 74 74 76 76 75 76 76 76 77 77 78 77 78 78 77 78 78 77 77 71 52 43 49 67 76 79 77 77 77 77 77 76 77 78 78 77
66 65 64 64 70 73 73 73 74 75 75 75 75 75 74 75 76 77 77 77 78 77 76 75 70 59 42 41 42 42 62 75 77 77 78 77 77 76 76 76 77 78
61 63 63 63 62 65 68 70 72 73 73 74 73 72 72 73 73 74 74 75 76 76 74 69 61 44 40 42 41 41 45 61 73 77 76 77 77 77 77 77 76 77
61 60 60 60 61 62 64 65 66 68 70 71 70 71 71 71 71 71 71 72 73 71 67 63 58 42 41 41 42 41 41 51 71 76 77 77 77 77 77 77 77 76
61 61 60 60 60 60 61 61 62 63 64 66 66 67 66 66 66 66 67 68 69 66 60 55 51 43 40 40 41 40 40 45 68 72 76 77 77 77 77 77 77 76
63 63 63 62 61 61 60 60 60 61 62 62 62 62 62 62 63 63 64 67 65 61 56 52 48 39 39 39 40 40 39 45 67 71 74 74 74 75 76 76 76 75
64 64 65 65 63 62 60 59 60 61 61 60 60 60 60 61 62 64 63 65 62 60 57 54 49 38 39 39 39 40 41 62 70 72 73 74 73 74 75 75 75 74
60 60 61 63 63 62 60 59 60 60 61 63 61 61 61 61 61 61 63 63 62 61 58 55 51 42 38 39 39 38 48 67 70 72 73 73 73 73 74 68 65 63
61 62 62 61 62 62 59 58 58 59 60 61 61 60 62 64 63 61 58 56 57 57 57 54 51 43 38 39 39 38 44 62 70 70 70 70 71 72 72 67 59 54
61 60 60 60 60 59 58 57 56 58 60 60 58 60 62 64 63 61 59 56 56 56 55 54 52 47 39 38 38 39 46 61 67 70 69 65 66 64 70 68 60 54
64 64 63 63 62 61 61 61 60 59 60 60 60 59 55 57 59 59 58 59 59 59 59 58 55 51 44 38 39 41 39 55 68 68 68 67 68 68 68 69 65 60

ECMWFNIL_sfc_temp_072.txt.gz
Temp
68 68 66 66 66 67 68 69 70 72 72 72 71 72 72 73 74 74 73 74 74 73 74 73 73 73 74 73 71 72 71 70 71 71 70 69 69 69 69 69 69 68
68 68 67 67 66 67 68 69 71 72 72 72 72 72 73 73 73 73 73 73 73 73 73 73 73 73 73 72 72 71 70 69 69 73 69 70 69 69 68 68 68 69
68 67 67 67 66 67 68 70 72 72 72 73 73 73 73 73 73 73 72 72 72 72 73 73 72 73 73 73 72 71 71 70 70 71 69 70 68 68 68 68 67 68
69 68 68 69 69 69 70 71 72 72 72 72 72 74 74 74 73 72 73 74 72 71 72 72 72 73 74 73 72 71 72 71 72 71 70 69 69 70 67 68 68 69
69 68 70 70 71 72 72 72 72 72 72 72 73 72 72 72 72 72 72 72 71 71 72 72 73 72 72 71 72 70 71 70 71 71 70 69 69 70 69 69 68 68
70 70 72 72 72 72 72 72 73 73 73 72 72 73 72 73 72 72 72 71 72 71 72 72 72 72 73 72 71 71 71 71 71 71 71 70 70 71 73 70 68 68
70 71 71 73 73 73 72 72 72 72 72 72 72 71 72 72 72 73 73 72 73 72 72 71 71 72 72 72 71 71 71 71 72 72 72 70 70 69 73 71 70 68
71 72 72 73 72 72 72 72 72 72 71 72 71 72 73 74 74 73 73 73 73 73 72 72 72 72 71 71 72 70 70 73 72 73 72 70 70 70 70 72 69 68
72 72 72 72 71 71 72 72 71 72 73 71 71 72 73 73 73 72 73 74 74 72 72 72 72 72 71 72 70 71 71 72 71 70 69 69 70 69 72 71 69 68
70 71 71 71 71 71 71 71 72 71 72 72 73 72 73 74 74 74 73 73 72 73 72 72 72 72 73 73 73 73 72 71 70 70 70 70 69 70 72 71 69 68
66 69 70 70 70 71 71 71 71 71 71 73 72 72 73 73 73 75 74 73 72 73 73 72 73 73 72 72 72 72 73 71 71 70 70 70 70 69 71 70 67 66
64 65 69 70 70 70 70 70 70 70 70 71 72 72 71 73 72 74 75 74 74 74 73 74 74 72 73 72 72 72 71 72 71 70 70 71 70 70 70 70 68 67
64 64 66 68 69 69 70 71 70 70 71 71 72 72 72 72 73 73 73 74 74 74 73 73 73 73 72 71 73 73 72 72 71 72 71 70 70 71 71 71 71 71
62 63 65 66 69 70 71 71 71 71 71 72 72 71 71 73 73 73 72 74 73 73 73 72 72 72 72 72 73 72 71 71 72 71 71 72 71 71 71 70 71 71
62 63 64 65 67 70 70 70 71 70 71 71 71 71 72 72 73 73 73 73 74 73 73 71 62 56 53 55 65 70 71 70 72 72 70 70 71 70 71 71 70 69
63 64 64 64 65 66 68 69 70 70 70 70 71 71 71 72 72 73 73 73 72 72 69 63 59 53 45 42 46 60 67 72 71 69 70 70 70 68 69 71 69 66
64 64 65 65 65 65 67 68 69 69 69 70 70 70 70 70 70 72 71 71 72 68 63 59 53 48 41 40 41 42 60 65 68 69 70 70 69 67 68 68 69 68
63 62 63 63 63 64 66 67 68 68 68 68 68 68 68 69 68 68 68 68 64 63 61 57 53 43 40 41 41 40 44 60 66 67 68 68 69 69 68 69 68 67
61 60 59 60 61 62 63 63 65 66 67 67 66 66 67 66 66 67 66 65 63 60 58 56 52 41 40 40 41 41 40 52 67 66 66 67 69 70 70 69 69 68
60 60 59 59 59 60 60 61 62 62 63 63 64 64 64 64 65 65 64 61 59 58 55 52 48 42 39 40 41 40 40 46 65 65 66 68 69 68 67 64 63 61
60 59 58 58 58 58 59 59 59 59 60 60 60 60 60 61 62 62 61 59 57 56 53 49 45 39 39 39 40 41 40 47 62 66 66 67 68 67 64 62 62 62
59 58 58 58 58 58 58 58 58 58 57 57 58 58 59 59 59 60 59 58 57 56 54 51 47 39 39 39 40 39 43 61 65 66 66 67 68 65 62 61 61 60
58 59 58 58 59 59 58 59 59 58 58 59 58 58 57 56 55 56 59 58 56 54 52 50 48 41 38 39 39 38 48 61 64 65 66 66 62 60 61 58 57 59
57 57 57 56 56 56 56 56 56 56 57 58 58 57 57 56 56 56 55 55 54 53 53 50 49 43 39 40 40 39 45 59 62 64 64 63 61 59 58 54 51 51
56 56 56 56 56 55 55 55 55 54 55 55 56 57 57 58 57 56 55 55 54 53 52 51 49 46 41 40 41 42 48 59 61 62 62 62 61 58 57 53 50 47
55 56 56 56 56 57 58 56 55 55 55 56 57 57 57 57 56 55 53 52 53 53 53 52 50 48 44 41 42 43 45 58 58 58 57 59 62 62 59 56 55 53

ECMWFNIL_sfc_temp_075.txt.gz
Temp
64 64 64 64 63 64 65 65 65 66 66 67 66 66 67 67 69 69 68 67 68 68 67 67 67 66 67 66 66 66 66 66 66 66 65 65 64 65 65 64 63 63
63 63 63 64 64 63 64 65 66 66 66 66 66 67 67 68 68 68 67 68 68 67 67 67 67 67 66 66 65 65 65 65 65 68 65 65 64 65 64 64 64 63
63 63 63 63 63 63 64 64 65 66 67 67 67 67 67 67 67 67 67 67 67 66 66 67 66 66 66 66 65 65 65 64 65 65 65 65 64 64 64 63 63 64
63 63 64 63 63 63 63 64 64 65 66 66 66 68 68 68 67 66 66 68 65 65 65 66 66 65 67 66 64 64 65 64 64 64 63 63 63 64 64 64 63 63
65 64 63 63 64 64 64 64 63 65 66 66 67 66 66 66 66 65 65 65 65 64 65 65 63 65 65 64 64 64 63 63 64 64 63 63 63 64 64 64 63 62
64 63 63 64 64 63 64 64 65 66 66 66 66 66 66 66 65 66 65 65 64 64 63 63 66 66 64 64 65 64 64 66 65 65 64 63 63 64 66 64 63 62
63 63 64 65 65 65 65 65 66 66 66 66 66 66 66 65 65 65 66 66 65 64 63 62 62 63 65 64 64 63 63 64 63 65 65 63 64 64 65 64 63 62
64 64 65 65 65 66 66 66 67 67 67 67 67 66 67 66 66 66 66 66 65 63 63 62 64 65 63 63 63 62 62 66 64 64 64 64 64 64 64 65 63 62
64 66 66 65 66 66 65 66 66 67 68 67 66 66 66 66 67 68 67 67 65 63 63 63 64 64 61 63 64 63 62 62 63 64 63 62 62 64 65 65 63 62
63 64 66 64 65 64 65 65 66 66 67 67 67 67 66 65 69 68 67 66 64 64 64 63 63 63 63 65 64 62 64 64 62 62 62 62 63 64 65 64 63 62
61 61 62 62 63 65 65 65 66 67 66 67 67 66 65 67 68 66 66 66 65 65 64 63 64 63 64 63 62 63 64 64 63 62 62 62 62 64 65 63 63 63
61 61 62 62 63 65 66 66 66 66 65 65 66 65 65 67 66 65 67 66 65 66 63 64 64 63 63 62 63 62 61 62 62 63 63 63 63 63 63 63 62 62
61 61 61 61 63 65 65 65 65 65 66 66 66 66 65 66 65 66 65 66 64 64 64 63 61 60 61 62 62 62 63 63 64 63 63 63 62 63 64 63 63 62
59 60 60 62 64 66 65 65 65 66 65 65 66 66 65 66 66 67 67 64 62 60 58 58 56 54 55 58 61 62 62 62 62 61 62 63 63 63 63 63 62 61
60 60 60 62 63 65 65 65 65 64 64 65 65 65 65 65 67 66 64 62 61 59 57 55 53 50 47 49 57 61 60 62 62 63 63 63 62 63 63 62 61 60
60 60 61 61 62 64 64 64 63 64 64 65 65 63 62 64 66 64 62 60 58 57 55 52 49 48 45 43 47 60 60 63 61 62 61 62 64 63 62 62 62 61
60 60 60 61 62 63 62 63 64 64 64 63 62 62 62 61 62 61 60 59 58 56 52 49 47 45 42 40 42 47 59 60 61 60 59 62 63 63 61 61 60 60
59 59 58 58 59 61 63 64 64 63 63 62 62 62 62 61 60 59 59 58 56 54 51 49 46 42 39 40 42 42 48 58 61 62 62 60 61 61 61 60 60 60
58 58 57 57 57 59 61 62 62 62 62 62 61 61 61 60 58 57 56 56 54 52 49 48 46 40 39 40 41 42 43 54 61 61 61 61 61 61 60 60 60 59
57 57 57 56 57 57 59 59 59 59 59 59 60 60 59 57 56 55 54 53 52 50 48 47 45 41 39 40 40 41 44 53 60 61 61 61 60 61 61 60 59 58
57 57 56 57 57 57 57 57 57 57 57 57 57 57 57 55 54 53 52 51 50 49 48 46 44 40 40 40 40 41 43 53 61 62 61 60 59 59 60 59 59 59
57 56 56 57 56 56 56 56 56 56 56 55 55 55 56 55 54 53 51 50 50 49 48 47 45 40 41 41 41 41 48 60 62 61 59 57 58 58 58 58 58 58
56 56 56 56 56 57 56 56 56 56 55 55 55 54 53 52 51 51 51 51 50 49 49 48 47 43 41 41 41 41 53 60 61 60 58 57 56 55 54 54 56 57
55 55 54 54 54 54 54 54 54 55 55 55 54 53 51 51 51 50 50 50 49 49 49 48 47 44 42 42 43 45 52 59 60 59 57 55 53 52 51 50 51 53
53 54 53 53 53 52 53 53 53 53 53 54 53 53 52 52 52 52 51 50 50 49 50 48 47 46 43 43 44 45 52 56 58 58 56 54 52 50 50 50 49 46
53 53 53 52 52 52 52 52 52 52 53 53 53 53 52 51 50 49 49 48 49 49 49 48 47 46 44 43 44 45 47 54 54 55 54 54 53 52 50 50 50 49

ECMWFNIL_sfc_temp_078.txt.gz
Temp
62 63 62 62 62 63 63 63 63 63 63 63 64 65 66 65 65 65 65 65 65 64 64 64 64 64 66 65 65 65 64 64 63 63 63 63 61 61 62 61 60 61
62 63 62 62 62 62 63 63 63 63 62 63 64 64 65 65 65 66 65 65 65 65 64 64 64 64 64 64 64 64 63 63 63 65 63 62 62 62 62 61 60 60
62 62 62 62 62 62 61 61 61 62 62 62 64 65 65 66 65 65 65 65 65 64 64 64 63 64 64 63 63 63 63 62 62 62 63 62 61 62 61 60 60 60
62 62 62 62 61 61 61 61 61 62 62 62 62 65 66 66 64 64 65 66 64 63 63 63 63 63 63 62 62 62 63 63 63 63 62 60 61 62 61 60 60 60
61 62 63 62 62 62 62 62 62 62 62 62 62 63 64 63 63 64 64 63 64 62 63 63 62 63 62 62 62 62 61 61 61 62 62 61 60 62 60 61 60 60
62 62 62 62 62 62 62 62 62 62 62 62 62 65 64 64 64 63 63 63 63 63 62 62 63 62 62 62 62 62 62 62 61 62 62 62 61 60 63 61 60 60
62 62 61 62 62 61 62 62 62 62 62 64 64 64 64 65 65 64 64 65 64 63 62 62 62 61 61 62 62 61 61 61 61 62 62 61 61 60 62 60 60 60
62 62 62 62 61 61 61 62 62 62 63 63 65 65 66 66 65 65 65 65 64 62 62 62 62 61 60 62 62 61 60 63 62 61 62 61 60 61 60 62 60 60
62 62 62 62 61 61 61 61 62 62 63 65 65 65 66 66 66 65 65 65 63 62 62 62 63 61 60 62 61 61 60 60 61 61 61 60 60 61 61 60 60 59
60 61 62 62 61 61 61 61 62 62 63 66 66 65 65 66 66 66 65 64 63 62 63 63 61 61 61 61 61 60 60 61 60 61 61 61 61 61 61 61 60 59
60 60 61 60 60 60 61 61 61 62 64 67 65 65 65 65 65 66 65 65 64 64 64 63 62 62 61 59 60 61 61 60 60 60 61 61 61 62 63 61 60 60
59 59 60 60 60 61 61 61 61 62 65 66 66 65 64 65 65 65 66 65 65 65 63 62 61 61 62 61 61 59 59 59 60 60 60 61 61 62 62 61 60 58
59 59 59 60 60 61 61 62 62 62 66 65 64 64 64 63 64 65 63 63 61 61 60 59 58 57 57 58 60 59 60 60 60 61 61 61 61 61 60 59 59 60
59 59 60 60 60 61 62 61 61 62 64 64 64 64 64 64 64 61 60 60 59 57 55 55 55 55 54 56 58 60 60 59 60 59 59 60 60 60 60 60 59 59
58 59 59 60 61 61 61 61 61 62 63 63 64 64 63 62 61 60 59 58 57 56 54 53 52 50 49 49 55 59 58 59 59 59 59 59 59 59 59 59 58 56
58 59 59 60 60 60 60 60 61 62 63 61 61 60 61 61 60 60 59 57 55 54 52 50 49 48 46 45 49 58 58 60 58 59 59 59 59 57 56 57 57 57
59 59 60 60 59 59 59 60 61 61 60 59 60 60 59 59 59 58 57 56 55 53 51 48 47 46 42 40 44 53 58 58 59 58 58 59 58 57 56 56 56 57
58 59 58 58 59 58 59 59 61 61 60 59 59 59 58 58 57 56 55 54 53 51 49 47 46 43 40 41 43 47 53 59 59 59 58 58 59 58 58 58 57 57
58 58 57 57 57 58 58 59 60 60 59 59 58 58 57 56 55 54 53 53 52 50 48 47 46 41 40 41 44 47 50 56 59 59 58 58 60 60 59 58 57 57
57 58 57 57 57 57 58 57 58 58 58 58 57 56 55 53 53 52 52 51 51 50 48 47 47 42 40 41 44 47 49 53 59 59 58 59 59 59 59 57 57 56
57 56 56 56 57 58 57 57 56 56 56 56 56 55 54 52 52 50 50 50 49 49 49 48 46 41 40 41 44 48 48 52 59 59 58 58 58 57 57 57 57 56
56 55 55 56 56 57 56 55 55 54 54 53 52 52 51 50 50 50 49 49 49 50 50 48 47 41 41 42 44 48 50 57 58 58 57 56 56 56 56 56 55 54
54 56 55 56 56 55 55 54 54 53 52 52 50 49 49 48 48 48 49 49 50 50 49 48 47 43 41 42 44 49 51 57 56 55 54 53 52 52 53 53 53 53
53 53 54 54 54 54 54 53 53 53 52 52 50 49 48 48 48 48 48 49 49 49 49 48 47 44 42 43 44 47 52 56 55 53 52 50 50 50 50 49 50 53
52 52 52 53 52 52 53 52 51 51 51 51 50 50 49 48 48 48 48 49 49 49 50 49 47 46 42 42 44 46 53 55 54 53 51 50 50 49 49 48 47 46
51 52 52 51 51 52 52 51 52 51 51 50 49 48 48 47 47 48 48 47 48 48 48 48 47 46 44 42 43 44 47 55 54 53 51 51 51 51 50 49 49 47

ECMWFNIL_sfc_temp_081.txt.gz
Temp
62 62 62 62 61 61 61 62 61 61 61 62 61 62 63 64 64 64 64 64 64 63 63 63 63 63 64 63 63 63 63 62 62 61 61 61 60 60 60 59 58 60
62 62 61 61 60 60 61 62 62 62 62 62 62 61 62 63 63 64 63 63 64 63 63 63 63 63 63 63 63 62 61 62 61 62 61 60 59 60 60 60 60 58
61 61 61 61 61 61 61 61 61 61 61 62 62 62 63 63 62 63 64 63 63 62 62 62 62 63 63 63 62 62 62 60 61 60 61 60 59 60 59 59 58 59
61 61 62 62 62 61 61 60 60 61 61 61 61 62 63 63 62 62 62 65 62 62 62 62 62 62 62 62 62 62 62 61 61 61 60 59 59 60 59 59 58 58
61 61 62 62 61 61 60 61 61 61 61 61 61 61 61 61 61 61 61 62 62 61 61 62 62 62 61 61 62 61 61 60 60 61 60 59 59 60 59 60 59 58
62 62 62 62 62 61 60 61 61 61 61 61 61 61 60 61 61 61 61 61 61 61 61 61 61 61 61 61 61 61 60 60 60 61 61 60 59 58 61 59 59 58
62 62 62 63 62 62 61 61 61 61 61 61 61 60 60 60 60 61 61 62 61 61 61 61 61 60 60 60 60 59 60 60 60 61 61 58 59 58 59 59 59 59
62 62 62 62 61 61 60 60 61 61 61 61 61 60 60 61 62 62 62 61 61 60 60 60 60 60 58 60 60 59 58 60 60 60 60 59 58 59 58 59 58 58
63 62 62 61 60 61 60 60 60 60 61 61 61 60 60 61 62 62 62 62 61 60 59 59 60 59 59 60 59 59 59 58 60 60 60 59 59 59 59 58 57 57
61 60 60 60 60 60 59 60 60 60 61 61 61 60 60 61 62 63 62 62 61 60 59 60 59 59 59 60 60 59 59 59 58 59 59 59 60 59 59 58 58 57
60 59 59 60 60 60 60 60 60 60 61 61 60 60 61 61 62 62 62 61 61 60 59 59 59 59 59 57 58 58 59 59 59 58 58 59 59 60 61 58 58 57
59 59 59 60 60 60 60 60 60 61 60 60 61 61 61 63 63 63 63 61 61 60 61 59 58 58 59 58 57 57 57 58 58 58 58 59 58 59 59 57 57 55
59 60 60 60 60 60 59 60 60 60 61 60 61 61 63 62 63 63 60 61 59 59 58 57 56 56 57 56 57 56 57 57 57 57 57 58 58 59 58 57 57 57
59 60 60 59 60 60 60 60 60 60 60 60 61 61 62 63 61 59 58 58 57 56 54 54 54 53 53 55 55 57 57 57 57 58 58 58 58 57 57 57 57 57
59 59 59 59 60 60 60 60 60 60 60 60 60 61 60 59 58 58 56 55 54 54 53 52 51 49 48 50 55 55 56 57 57 58 58 57 57 56 56 55 54 54
59 59 59 59 59 59 60 60 59 59 59 58 59 59 58 58 58 57 56 55 53 51 51 50 49 48 47 45 51 56 56 58 57 57 58 57 56 55 54 54 54 55
58 59 59 59 59 59 58 59 59 58 58 57 57 57 58 57 56 55 53 52 52 51 49 49 47 46 43 42 47 52 57 57 57 56 57 57 56 55 54 54 54 54
58 59 58 58 58 58 58 58 58 57 56 56 56 55 56 56 55 53 51 51 50 50 48 48 46 43 41 44 46 49 53 57 57 57 56 56 56 56 55 55 54 55
58 58 58 57 57 57 57 57 57 56 56 55 55 55 55 54 53 52 51 51 51 50 48 48 47 42 42 45 45 46 49 55 57 57 56 56 56 56 55 55 54 54
57 58 57 57 57 57 57 57 56 55 54 55 54 54 54 52 51 51 51 50 50 50 48 47 47 43 43 45 45 46 48 52 58 57 56 56 56 55 55 54 54 53
56 56 56 56 57 56 55 54 54 53 53 53 53 53 53 52 51 50 50 49 49 49 49 47 46 41 43 44 45 46 48 51 57 57 56 56 56 55 55 54 53 52
55 55 55 56 56 55 54 53 52 52 51 50 50 50 50 50 49 50 50 49 49 49 49 47 46 41 43 44 45 47 49 55 55 55 54 53 53 53 53 53 53 52
53 54 54 55 54 54 53 52 51 50 49 49 48 48 47 47 47 47 49 50 50 49 48 45 45 42 43 44 45 47 50 54 53 51 50 50 49 50 51 52 52 52
52 52 52 53 53 52 51 50 50 49 48 48 47 47 46 47 47 47 47 47 48 48 48 47 46 43 42 44 45 47 51 54 53 51 49 48 47 48 49 48 49 51
51 51 51 51 51 50 50 49 49 48 48 48 47 47 46 46 47 47 47 47 47 47 49 47 46 45 42 43 45 47 51 53 53 51 49 48 48 47 48 47 46 46
48 50 50 51 50 50 50 49 48 47 47 46 46 46 45 45 46 46 45 45 46 46 46 46 45 44 43 42 43 45 48 54 53 51 48 48 49 49 48 47 46 46

ECMWFNIL_sfc_temp_084.txt.gz
Temp
61 61 61 61 61 62 62 63 64 64 64 63 63 62 62 63 63 63 63 63 63 63 63 63 64 64 64 64 64 64 63 63 63 63 63 62 62 61 61 61 61 62
61 61 61 61 61 61 62 63 63 63 63 63 63 62 62 62 63 63 62 63 63 63 63 63 63 64 63 63 63 63 63 62 62 63 62 62 61 61 62 61 61 61
60 60 61 61 61 61 61 61 62 62 62 62 62 62 62 63 62 62 62 63 63 62 62 62 63 63 64 63 63 63 63 62 62 62 62 62 61 61 61 61 60 61
61 61 61 61 61 61 61 61 61 61 61 61 61 62 62 63 62 62 62 64 62 62 61 62 63 63 64 63 63 63 63 62 63 62 61 60 61 61 60 60 60 60
61 61 61 61 62 62 61 61 61 60 61 61 61 62 62 61 61 61 61 62 62 61 61 61 62 62 63 63 63 62 62 61 61 62 61 60 60 61 60 60 60 60
61 61 61 62 62 62 61 61 61 61 61 60 61 61 61 62 61 61 61 61 60 61 61 61 61 61 62 62 62 62 61 61 61 62 61 61 60 60 61 61 60 60
61 61 61 62 62 61 61 61 61 61 61 61 61 60 61 61 61 61 62 61 61 61 61 61 61 61 61 61 62 61 61 62 61 62 62 60 60 60 61 61 61 60
61 62 62 62 61 61 60 61 61 61 61 61 61 61 61 61 62 61 61 61 61 61 61 61 61 61 60 61 61 60 60 61 61 61 61 60 60 60 60 60 60 60
61 61 61 61 61 61 61 61 61 60 61 61 60 60 61 61 61 60 61 62 62 61 61 61 61 61 60 61 61 61 60 60 61 61 61 59 60 60 60 60 60 59
61 61 61 61 60 61 61 61 61 60 61 61 61 60 60 60 61 61 61 61 62 61 61 61 60 60 60 61 61 61 61 60 60 60 61 61 61 60 60 60 60 59
60 60 60 60 60 61 61 61 61 60 60 61 60 60 60 60 60 61 62 62 61 61 61 61 61 60 60 59 60 60 61 60 60 60 60 60 61 61 61 60 60 60
59 59 59 59 60 60 60 60 60 60 60 60 61 60 60 60 61 61 62 62 62 62 62 61 60 60 60 60 59 59 59 60 60 60 60 60 60 60 60 60 60 59
59 59 59 59 59 59 60 60 60 60 60 60 60 60 60 60 60 61 61 62 61 61 61 61 60 59 59 59 59 59 59 59 59 59 59 60 60 60 60 60 60 59
59 59 60 60 59 59 59 60 60 60 60 60 60 60 60 61 61 61 59 60 59 59 58 59 58 58 57 58 59 59 59 58 59 59 59 59 59 59 59 59 59 60
60 60 60 60 60 60 59 59 59 60 60 59 59 60 61 60 60 59 58 57 56 56 56 56 57 56 56 58 58 58 58 58 59 59 59 58 58 58 57 57 56 56
59 59 59 59 59 59 59 59 60 59 59 59 59 59 58 59 59 58 57 56 55 54 54 54 52 50 50 51 54 58 58 58 58 59 59 58 57 56 55 55 55 56
59 59 59 58 59 59 59 59 59 59 58 58 58 57 57 57 57 56 55 55 55 54 53 51 48 48 44 41 47 51 58 58 58 58 58 58 57 57 55 55 55 56
57 58 58 58 59 59 59 59 59 58 58 57 56 56 55 56 55 55 54 53 53 53 51 50 48 44 41 41 44 48 53 58 58 58 57 56 57 56 56 56 56 56
55 57 58 58 58 59 58 58 57 57 56 56 56 55 56 55 54 53 53 53 53 52 50 50 49 42 42 42 44 46 48 54 58 58 57 55 56 57 56 56 56 55
54 56 56 57 57 56 56 56 56 55 55 55 54 53 54 53 53 52 52 52 52 52 50 49 48 44 42 43 45 45 46 51 57 57 57 57 56 56 56 55 55 55
53 55 55 55 55 55 55 54 53 52 52 52 51 51 52 52 52 51 51 51 51 51 50 48 47 42 42 43 44 45 47 50 57 57 56 55 54 54 54 54 53 54
52 54 53 53 53 52 52 51 51 50 49 49 49 49 48 49 50 51 50 50 51 51 51 49 47 42 42 44 45 46 48 56 56 54 53 53 52 52 53 53 53 53
50 51 52 52 51 50 49 49 48 48 48 48 47 46 46 46 47 48 49 50 50 50 50 48 47 43 42 44 45 46 49 54 53 52 51 50 49 49 49 51 52 52
49 50 50 50 50 49 48 47 47 46 46 47 46 45 45 45 46 47 47 48 48 48 49 49 47 43 42 43 45 46 50 54 53 51 50 49 48 47 46 46 49 51
48 49 49 49 48 47 47 46 46 45 46 46 45 45 45 45 45 46 46 47 47 48 50 48 47 46 43 43 44 46 51 53 52 51 49 48 47 46 46 46 46 46
45 47 48 49 48 47 47 46 46 45 45 45 45 44 44 44 45 44 44 44 45 45 45 46 46 45 43 42 44 46 47 54 53 51 49 47 48 49 48 47 47 47

ECMWFNIL_sfc_temp_087.txt.gz
Temp
69 69 68 68 68 69 69 68 69 69 69 69 67 68 67 66 65 66 67 67 68 68 68 69 70 70 70 70 71 71 72 70 69 69 70 70 71 71 70 71 71 71
68 68 68 67 67 68 68 68 68 68 68 68 69 69 68 68 66 65 65 64 67 68 69 69 69 70 70 70 70 70 71 69 68 68 68 69 70 71 70 70 71 71
68 68 67 66 66 66 67 68 67 67 67 68 69 68 67 68 67 66 65 65 66 67 68 68 69 69 68 66 65 65 68 69 67 67 67 70 70 70 70 70 71 70
68 67 67 67 66 66 67 67 67 68 68 67 67 68 68 67 67 67 66 66 67 68 68 68 68 68 66 64 64 64 66 68 70 69 68 69 68 68 69 71 71 71
65 66 67 67 65 66 66 66 67 67 66 66 67 68 68 68 67 68 68 67 66 68 68 67 67 67 66 65 64 63 65 64 68 69 70 68 69 70 71 71 71 69
65 66 66 67 67 65 65 66 66 67 66 66 67 67 67 68 69 69 69 68 68 68 67 67 67 66 66 66 65 64 64 66 67 67 67 70 69 70 70 70 70 71
65 65 65 66 66 66 66 66 67 67 66 66 67 68 69 68 68 70 70 69 68 67 67 66 66 64 65 65 65 65 66 66 66 66 67 66 66 67 71 71 72 72
66 67 66 66 66 65 65 65 66 66 67 66 65 67 69 69 69 70 70 70 69 68 67 67 67 66 65 65 66 65 65 66 67 67 68 67 68 68 70 72 71 71
65 66 65 64 62 62 63 65 66 67 68 66 66 67 68 69 70 71 70 70 70 68 68 68 66 66 66 66 67 67 65 65 66 67 67 67 68 70 72 72 70 68
65 65 64 63 63 63 65 65 65 65 66 66 67 67 67 68 70 71 70 69 68 69 69 67 66 65 66 68 69 70 68 66 66 66 67 69 70 71 72 71 70 69
64 64 64 63 63 64 65 65 64 63 63 65 66 66 67 68 69 71 69 69 67 67 68 69 67 67 68 70 71 71 69 68 68 68 67 71 71 71 70 72 71 70
63 64 64 64 64 63 64 65 65 64 64 63 65 66 67 68 69 69 70 70 69 70 71 70 69 70 70 72 73 72 70 69 70 69 70 72 71 72 72 72 72 72
62 63 63 63 63 63 64 64 65 64 64 64 65 66 67 66 65 65 65 67 70 71 70 68 69 70 71 72 73 72 72 72 71 71 70 71 71 71 72 72 73 73
60 61 63 63 64 64 64 64 64 64 64 64 64 65 66 66 64 64 65 66 68 68 67 67 68 70 72 72 73 72 72 71 71 71 71 70 70 70 71 72 72 72
59 60 62 64 64 63 63 63 63 63 63 63 64 65 66 66 65 64 64 67 68 65 65 66 67 69 71 71 71 71 72 71 71 71 70 70 69 70 70 71 71 71
59 59 60 62 62 62 62 63 63 63 63 63 63 65 66 67 66 66 67 68 67 66 65 65 67 68 64 58 61 71 71 72 70 71 71 70 70 69 68 68 68 69
57 58 59 60 62 62 62 62 63 63 62 61 62 63 64 65 65 67 67 66 66 65 64 63 62 60 47 48 51 55 68 70 70 70 70 70 69 68 67 66 67 67
56 58 60 61 63 63 63 63 62 61 60 59 59 60 61 62 62 66 65 63 63 64 63 61 59 47 42 45 46 50 58 70 70 69 69 68 68 68 68 67 66 65
56 58 59 60 61 61 61 61 61 60 60 59 60 60 59 60 62 60 60 59 61 62 60 59 56 42 42 43 45 47 50 61 70 69 68 67 65 66 67 67 66 65
55 56 57 58 59 58 58 59 60 60 60 59 58 57 58 57 58 57 57 58 60 61 60 59 58 43 41 43 44 45 48 58 69 67 66 66 66 65 65 65 65 65
54 55 55 57 58 56 54 53 53 55 55 55 54 55 55 55 55 55 57 58 59 60 59 57 53 41 42 43 44 45 48 54 64 63 64 64 64 64 65 65 65 65
53 54 55 56 56 56 54 50 49 50 50 50 51 52 52 52 51 54 55 57 58 59 57 53 48 41 42 43 45 46 50 61 62 61 61 62 62 63 63 64 64 63
51 53 53 53 54 54 53 50 47 47 48 49 48 48 47 47 48 50 53 57 58 56 54 51 50 44 42 43 45 47 54 61 59 59 59 59 59 59 59 59 61 62
50 52 52 52 51 50 50 50 49 47 47 47 47 46 46 46 47 48 49 51 53 53 54 52 51 46 42 44 46 48 54 61 61 60 58 58 57 54 53 52 51 52
50 50 51 51 51 50 50 49 49 47 46 47 46 46 45 45 46 45 46 47 49 50 50 51 51 48 42 42 44 47 56 60 59 57 57 55 51 49 51 50 49 47
50 50 50 50 50 50 51 50 49 47 47 46 46 45 45 45 45 44 43 43 45 47 48 48 47 46 44 42 44 46 49 59 59 56 53 52 52 52 54 53 52 50

ECMWFNIL_sfc_temp_090.txt.gz
Temp
74 75 75 74 74 74 74 74 74 75 75 74 73 74 74 74 74 74 75 75 75 75 75 74 72 68 67 68 68 67 68 68 67 67 69 69 68 69 69 69 69 74
73 73 74 73 72 72 72 73 75 74 73 73 74 74 75 75 74 73 73 73 74 74 75 74 71 69 69 68 69 68 67 65 65 68 69 68 68 69 66 66 71 69
71 72 72 71 71 71 71 72 72 74 75 75 75 74 74 74 74 74 73 73 73 73 74 72 70 68 68 69 70 67 66 67 69 69 69 70 66 65 68 68 67 72
71 71 71 71 72 72 72 72 71 71 74 75 74 74 74 73 73 73 73 72 72 73 74 73 72 70 68 69 68 68 69 72 73 72 70 70 69 67 69 69 67 68
70 71 71 72 72 73 72 71 71 71 71 73 75 74 73 72 71 71 72 72 73 73 73 73 73 70 67 66 70 71 71 71 71 71 70 70 67 68 71 68 67 67
70 72 73 72 72 72 72 72 72 72 72 72 73 75 74 74 72 71 72 72 72 72 72 72 73 72 69 67 70 71 71 71 71 70 71 71 69 70 73 70 68 67
70 70 71 72 72 72 71 71 72 72 72 72 74 73 74 73 71 71 73 73 72 72 74 73 73 72 71 70 70 70 71 72 71 70 70 70 70 68 70 70 69 69
69 71 72 72 71 71 70 71 71 71 71 70 70 73 74 74 74 73 74 74 74 74 73 75 73 72 71 71 70 69 70 71 70 71 71 71 71 70 68 70 69 70
69 70 71 70 70 70 70 70 71 71 70 68 68 70 72 73 73 74 74 74 74 74 72 73 71 72 71 71 71 70 70 70 71 72 71 71 71 72 70 70 71 72
68 69 69 69 69 70 70 71 70 70 69 67 67 69 71 72 73 74 74 74 73 73 73 74 74 73 71 72 72 72 71 71 71 71 72 72 73 74 72 69 74 75
66 67 67 68 69 69 69 70 70 70 69 68 68 69 70 71 72 74 74 74 71 71 73 74 74 74 72 71 70 69 73 71 71 71 72 74 74 75 71 71 75 75
65 65 65 66 67 69 69 69 69 69 68 68 68 68 69 70 70 72 72 74 75 75 75 74 76 74 72 72 73 71 70 71 72 73 73 74 74 74 74 73 75 76
63 64 64 65 66 67 69 69 70 68 68 68 68 68 68 68 69 69 67 72 75 74 75 75 75 75 73 71 69 67 66 68 68 72 73 73 73 72 73 72 75 77
63 64 65 66 67 67 68 68 68 69 69 69 69 68 68 69 69 67 70 73 74 75 76 76 76 75 73 70 67 66 66 69 73 73 73 71 69 70 71 75 77 77
63 64 65 66 67 69 69 68 67 67 68 69 69 69 70 71 68 66 66 70 73 73 74 75 73 72 73 69 67 67 67 68 72 72 71 71 69 70 75 77 77 77
63 64 65 66 66 67 68 68 67 67 67 68 68 69 70 69 67 66 65 67 71 70 71 69 67 68 67 59 60 67 69 70 71 71 73 73 74 74 75 76 76 77
62 64 66 66 66 66 67 67 67 66 66 67 67 68 69 69 67 66 66 66 68 69 69 67 66 68 57 51 54 57 67 68 70 71 73 75 74 74 73 74 75 76
61 64 66 67 68 67 65 65 64 65 64 65 66 67 68 68 66 67 67 66 66 68 66 65 64 56 47 48 51 53 58 70 70 68 72 74 75 74 74 74 74 74
60 62 65 66 67 66 64 62 61 61 63 64 65 67 67 65 66 66 66 66 65 64 65 65 62 47 43 46 47 50 52 63 78 73 74 74 74 74 74 74 73 72
59 61 62 64 65 65 63 60 58 57 57 59 63 65 65 65 64 62 63 64 65 64 64 64 62 46 42 44 46 48 50 57 77 74 74 74 74 74 74 73 73 72
58 59 61 63 64 63 61 59 56 54 54 55 57 58 59 57 56 57 58 59 60 63 63 62 57 41 41 43 44 46 49 57 74 73 73 72 72 71 72 73 73 73
57 58 60 62 62 61 59 57 55 53 52 52 53 54 55 56 56 56 57 59 60 60 58 55 50 40 41 42 44 46 52 70 71 70 70 71 71 71 66 71 72 72
57 57 58 60 60 59 57 56 54 52 51 52 51 51 50 50 51 52 52 54 55 55 54 53 52 45 42 43 45 48 58 70 69 69 69 69 70 70 69 71 72 73
58 58 58 58 58 57 56 56 55 54 52 52 50 49 47 47 47 47 47 48 49 51 51 52 52 45 42 43 45 47 59 67 67 66 65 64 60 60 61 61 56 55
59 57 56 56 57 58 56 55 55 55 54 52 52 51 48 47 46 45 45 45 46 47 48 48 50 47 42 42 43 47 62 67 66 65 60 55 56 57 56 56 55 51
59 57 55 55 56 57 57 56 56 55 54 53 52 50 48 46 46 44 44 44 45 45 45 46 47 48 45 42 44 46 50 62 62 60 56 54 54 55 55 55 53 53

ECMWFNIL_sfc_temp_093.txt.gz
Temp
75 76 76 76 75 75 75 75 74 72 72 71 72 75 78 78 78 76 77 76 76 75 75 74 72 69 71 73 73 73 74 73 73 73 72 72 72 71 69 69 68 68
74 74 75 75 75 76 76 75 75 74 72 71 71 72 73 72 74 76 76 76 76 76 77 74 71 70 71 74 73 71 72 72 72 73 71 71 71 69 69 69 69 69
73 73 73 73 73 74 74 75 75 75 74 74 74 73 71 71 71 70 73 74 76 75 75 72 71 71 72 74 73 71 71 71 70 71 71 71 69 68 68 70 69 68
72 72 73 73 73 73 74 74 75 74 73 74 74 74 73 72 70 71 71 70 73 75 75 73 70 71 75 74 73 71 72 71 71 70 69 70 70 68 68 70 69 69
72 73 74 74 75 75 74 74 74 75 74 72 73 75 75 72 70 71 69 72 75 75 74 73 73 71 72 73 74 71 71 70 71 69 69 69 71 70 70 70 69 68
72 73 74 74 74 75 74 74 75 75 75 72 71 72 75 74 72 69 67 68 75 72 71 72 71 72 71 73 72 72 70 70 69 69 67 67 69 69 70 69 70 69
70 71 71 73 74 74 73 73 74 75 75 75 75 71 69 70 70 69 67 67 74 74 77 76 73 71 72 72 72 72 71 70 69 68 67 67 68 66 70 67 67 67
69 71 71 72 72 72 73 74 75 74 75 75 74 73 71 69 68 67 68 68 69 75 77 76 76 75 71 70 70 72 71 70 69 67 67 66 66 66 68 69 68 68
69 71 71 70 70 72 72 74 74 74 75 74 73 73 73 70 69 69 68 68 71 75 77 77 75 73 70 69 69 70 70 69 69 67 67 66 66 68 69 68 68 69
68 69 69 68 68 70 70 72 74 74 74 73 73 73 72 71 70 69 67 68 67 67 73 75 73 69 67 68 71 72 70 68 69 67 69 70 68 72 72 69 67 67
68 68 68 68 68 69 69 70 71 73 74 74 73 73 73 72 71 69 67 67 66 66 66 68 70 68 68 68 67 67 69 70 69 69 71 71 71 72 71 71 70 72
67 67 67 67 67 68 69 70 71 72 72 72 74 73 72 72 71 68 66 67 69 68 68 68 70 70 68 67 69 71 73 73 72 70 72 70 72 70 71 70 73 73
67 67 66 66 67 68 69 70 71 72 72 71 72 71 71 70 69 69 67 68 69 67 67 69 68 67 67 67 68 69 71 74 71 69 69 70 70 68 67 70 76 75
67 67 67 68 70 70 70 70 70 71 72 73 72 70 69 69 69 66 69 70 71 69 66 66 66 65 66 67 68 71 72 72 71 69 68 67 67 68 75 74 74 76
67 67 68 70 72 72 71 69 69 69 69 71 72 71 70 71 71 70 70 69 72 69 67 66 65 65 66 67 68 68 71 72 72 71 69 67 65 66 70 75 73 73
67 67 68 69 70 70 70 69 68 67 66 66 68 71 71 72 72 71 69 69 70 70 68 66 65 66 63 59 59 70 71 72 71 69 69 68 65 65 70 72 73 71
66 66 68 69 70 70 68 67 66 65 64 62 62 66 69 69 69 70 69 66 68 70 68 65 63 65 54 50 52 56 68 71 70 70 70 67 65 66 67 69 68 68
64 65 67 68 69 69 68 66 64 63 61 59 59 60 62 66 66 66 67 67 65 68 66 64 65 55 48 47 49 52 58 70 70 70 68 67 67 65 66 67 68 66
64 65 66 67 68 68 66 65 63 61 58 56 55 57 60 61 63 64 65 67 67 67 63 63 65 47 48 47 48 47 49 62 73 71 68 65 65 65 65 66 67 66
63 64 65 67 67 67 65 63 61 59 57 56 55 56 56 57 59 61 64 64 64 65 63 64 61 44 44 46 47 46 47 54 74 70 68 68 65 65 64 65 67 67
63 62 62 65 67 65 63 62 60 59 57 55 54 53 53 53 54 55 59 62 63 64 62 56 50 41 41 40 43 43 44 50 73 69 67 65 66 65 65 64 67 67
63 61 61 63 64 63 61 59 58 57 55 55 54 53 53 52 52 52 52 55 57 58 57 56 52 40 40 41 41 42 40 64 69 67 63 65 65 64 64 66 66 68
62 61 60 61 62 61 59 58 56 55 55 54 53 52 51 50 50 50 50 51 52 53 54 53 52 43 40 41 42 42 50 69 68 63 65 64 66 65 62 59 57 63
61 61 60 60 60 58 57 57 56 55 54 54 52 51 49 49 50 50 49 48 48 48 49 50 49 45 40 41 42 42 53 62 64 64 63 63 59 59 61 60 56 49
61 59 59 60 59 58 56 55 55 54 55 54 53 52 50 49 49 49 48 47 47 46 46 47 47 45 41 41 42 44 55 63 64 63 62 61 59 58 58 58 57 52
60 58 57 58 59 58 57 55 54 55 54 53 53 52 50 49 48 48 46 46 46 46 45 44 45 45 42 40 42 43 49 62 64 61 59 57 57 56 53 53 52 51

ECMWFNIL_sfc_temp_096.txt.gz
Temp
72 71 71 71 71 72 72 72 72 72 71 71 70 71 70 70 70 69 70 69 67 66 66 67 69 68 67 68 68 67 66 66 66 66 66 65 65 65 65 65 65 66
71 71 71 71 71 71 72 72 71 71 72 72 72 72 72 72 72 71 70 69 66 66 67 67 66 68 69 66 66 65 66 65 65 67 65 65 64 65 65 65 65 67
70 70 70 69 70 70 71 72 72 71 71 72 72 72 72 72 71 71 70 69 68 67 67 66 67 67 68 68 66 65 65 65 65 66 65 65 64 64 64 65 66 67
69 69 69 70 70 70 71 71 71 72 72 72 72 72 72 72 71 70 70 70 69 67 67 67 67 67 67 67 65 65 66 66 65 65 65 64 65 65 65 65 65 67
68 69 69 70 70 71 71 71 71 71 71 72 72 72 72 71 70 69 70 69 69 68 66 65 65 66 67 66 65 65 66 65 66 66 65 64 65 65 65 65 65 66
68 69 70 70 70 70 69 70 71 71 72 71 71 72 72 71 71 71 70 69 69 68 66 66 66 65 66 66 65 65 65 64 65 66 65 65 65 66 67 67 67 67
67 68 68 69 69 69 68 69 70 71 71 72 72 71 71 71 71 70 71 70 70 68 67 66 64 65 65 65 65 64 64 65 66 65 65 65 66 65 67 68 67 67
67 68 68 68 67 67 67 68 69 69 70 71 71 71 71 71 71 70 70 69 68 67 67 66 66 65 65 65 65 64 64 65 65 65 65 66 66 66 66 68 68 68
67 67 67 67 66 67 66 67 68 69 70 69 70 71 71 70 70 70 69 69 69 67 66 66 65 65 65 65 65 65 64 64 64 64 63 65 65 66 68 68 67 67
66 66 66 66 65 66 66 67 68 68 70 70 71 70 70 70 70 70 70 70 68 67 66 66 65 64 65 66 65 65 64 64 65 65 65 66 66 66 67 67 66 66
66 66 65 65 66 66 67 68 68 69 69 70 70 70 71 70 70 70 69 68 66 67 66 65 65 65 65 64 64 64 65 65 64 64 64 65 66 66 68 67 66 65
65 65 65 65 66 67 68 68 68 67 68 68 69 68 70 70 70 69 69 69 69 67 67 66 66 66 65 65 65 65 64 64 64 64 64 65 65 66 67 67 66 65
64 64 65 65 66 67 68 68 67 66 65 65 66 66 65 67 69 69 69 68 68 68 66 66 67 66 65 65 65 65 64 64 63 64 64 64 65 65 66 66 66 66
64 64 64 66 67 68 67 66 65 64 64 63 63 62 63 64 64 66 68 68 67 67 66 66 66 66 65 65 64 64 64 64 64 63 64 64 64 65 66 65 65 65
64 64 65 66 67 67 66 65 64 63 62 62 61 60 61 62 64 65 67 67 67 65 65 65 65 65 65 65 64 64 64 64 64 64 64 63 64 64 64 64 64 64
64 64 66 66 66 66 64 63 63 62 61 60 59 59 59 61 62 63 64 64 64 65 64 64 64 65 63 58 58 64 64 63 63 63 64 63 63 63 64 65 65 64
63 63 65 65 65 65 63 62 61 60 59 58 57 57 57 57 59 59 60 61 62 64 63 63 63 64 53 49 49 53 63 64 63 63 64 63 63 63 64 63 64 63
62 62 62 63 64 63 62 61 60 59 58 57 56 55 55 55 55 55 57 59 60 60 61 62 63 55 47 46 45 46 53 63 62 62 62 62 62 62 63 63 62 62
63 62 62 62 62 62 61 60 59 57 56 55 55 55 54 53 53 53 53 55 56 57 57 56 55 43 41 41 44 45 48 58 62 62 61 62 62 63 64 62 62 62
62 61 61 61 61 60 60 58 57 55 55 55 54 54 52 52 52 51 51 52 53 54 55 54 52 44 39 41 40 41 42 50 64 62 62 63 63 62 61 61 61 60
60 60 60 60 60 59 58 56 55 55 54 53 53 52 51 50 51 50 49 50 50 51 52 52 51 42 39 39 41 40 40 49 62 63 62 62 62 62 62 62 62 62
59 59 59 59 59 57 56 55 54 54 53 53 53 52 51 51 51 50 48 48 48 48 48 49 50 43 40 39 40 41 46 60 62 62 61 60 57 56 57 58 61 61
59 58 57 58 57 55 54 54 54 53 53 53 52 51 50 50 49 49 49 48 47 47 46 47 47 44 40 40 40 44 54 61 60 59 58 56 55 54 53 53 56 61
57 57 56 56 56 55 54 54 55 54 53 53 52 51 49 49 49 49 49 48 46 45 45 45 45 44 41 40 42 47 54 59 58 56 55 54 53 53 52 50 49 50
54 55 55 55 56 56 55 55 55 54 54 53 52 52 50 50 49 49 48 48 47 46 46 44 44 44 41 40 43 46 54 59 57 56 54 53 51 50 50 49 48 46
53 53 53 53 54 57 56 56 56 56 54 53 52 53 52 51 50 49 48 47 47 46 45 44 42 43 42 40 42 44 47 55 55 53 51 50 51 50 48 47 46 46

ECMWFNIL_sfc_temp_099.txt.gz
Temp
65 64 64 63 63 65 65 65 65 65 65 65 65 66 66 66 65 65 65 65 65 64 64 64 64 64 65 65 64 64 63 64 64 64 64 64 65 64 64 62 63 63
64 63 64 63 63 64 64 64 65 65 65 64 65 65 66 66 66 65 64 65 65 64 64 63 63 64 64 63 64 63 63 63 63 65 63 63 63 64 63 63 63 64
62 61 62 61 62 62 63 64 64 65 64 65 66 66 67 66 66 65 64 64 64 64 64 63 63 63 63 63 64 63 63 63 63 63 63 63 64 64 64 63 63 64
61 61 63 63 63 63 63 63 64 64 65 65 66 68 69 68 66 65 64 66 65 65 64 63 63 63 64 64 63 62 63 63 64 63 63 63 63 64 64 64 63 62
60 62 64 64 64 63 62 62 62 63 64 64 66 66 66 66 65 65 64 64 64 64 64 63 63 63 63 63 64 62 63 63 63 63 62 62 63 63 63 63 62 62
61 62 62 62 62 61 61 61 61 62 63 63 64 65 65 65 64 65 63 63 64 64 64 63 62 62 62 63 63 62 62 62 63 63 62 62 62 63 63 63 63 62
59 60 60 61 61 60 60 60 61 62 62 63 63 64 65 64 64 64 64 63 64 64 63 62 62 61 61 62 62 62 62 62 63 63 63 63 62 62 63 63 62 63
58 59 59 59 59 59 60 60 61 61 63 64 63 64 64 65 65 64 64 64 63 64 63 63 62 62 62 61 61 61 62 62 62 63 63 63 63 62 63 64 63 62
59 59 60 59 59 60 61 61 61 61 63 62 62 62 63 63 64 64 64 63 63 63 63 63 62 62 62 62 61 62 62 62 62 62 61 61 62 62 63 63 63 62
59 59 60 60 59 60 62 62 61 61 61 60 60 60 60 61 62 63 64 64 63 63 63 63 62 61 62 62 62 62 62 63 63 62 62 62 62 63 63 63 63 62
58 59 59 59 60 61 61 60 60 59 60 59 59 58 59 59 60 61 62 63 64 64 63 63 63 63 62 62 62 62 63 63 63 62 62 62 62 62 63 63 63 62
58 58 58 58 60 61 60 59 59 58 59 59 59 58 58 58 58 59 61 63 64 64 63 63 63 63 63 63 62 62 61 62 62 62 63 62 62 63 63 63 62 63
57 58 58 58 61 60 59 58 58 58 58 58 58 58 57 57 58 58 59 61 62 62 63 63 63 62 62 63 63 63 62 62 61 62 62 62 62 63 63 62 63 63
57 58 60 61 60 59 58 58 58 58 58 57 57 57 56 56 56 56 57 58 59 61 62 62 62 62 62 62 62 62 62 62 61 61 60 61 61 62 62 63 63 63
57 58 59 60 59 58 57 57 58 58 57 57 56 56 55 55 56 55 55 55 57 58 59 60 61 60 56 51 56 61 62 62 62 61 61 61 61 61 62 62 62 62
57 58 59 59 58 57 57 57 57 56 56 55 55 55 54 54 54 54 53 53 53 55 56 57 56 53 49 45 45 50 56 61 62 61 61 61 60 60 61 62 62 61
59 59 59 59 58 57 56 56 56 55 54 54 54 53 53 53 53 51 51 51 51 52 52 54 54 52 44 41 41 43 51 57 60 60 61 60 60 60 60 60 61 62
58 58 58 57 57 56 56 56 55 54 53 53 52 52 52 52 51 50 50 50 50 50 50 51 52 49 41 41 41 40 45 54 60 60 59 59 60 60 60 59 60 59
57 57 57 56 55 55 55 55 54 53 53 52 51 52 51 50 50 49 49 49 48 48 47 49 50 46 42 40 40 39 40 47 59 60 59 59 60 60 60 60 59 59
56 56 56 54 54 54 55 54 53 52 52 52 52 51 50 50 49 49 49 48 48 47 46 47 48 46 41 40 40 39 39 42 59 59 58 60 60 60 60 59 59 59
54 55 55 54 53 53 53 53 52 52 51 51 51 50 49 48 48 48 48 48 47 47 46 45 47 43 40 39 39 39 39 42 60 60 58 58 58 59 59 59 59 60
51 52 53 53 52 52 52 52 51 51 50 51 51 50 50 50 49 49 47 47 47 46 45 44 45 42 40 40 40 39 39 55 58 56 54 54 53 53 53 54 58 59
50 50 50 50 51 51 50 50 49 48 49 51 50 50 49 48 48 48 48 47 46 46 44 43 44 43 40 41 42 44 51 56 54 53 52 51 50 50 50 49 51 57
52 52 51 50 49 49 50 49 49 48 48 49 49 49 48 48 48 47 47 46 45 45 45 42 43 43 40 41 42 44 50 54 52 51 50 49 48 48 48 48 48 48
52 52 51 51 50 50 51 50 49 47 47 47 48 49 48 49 48 47 46 46 45 45 46 43 42 42 41 40 41 43 49 52 51 49 47 47 47 46 46 46 46 46
50 51 51 51 50 50 50 49 49 48 46 46 46 47 47 47 48 47 46 45 45 44 45 44 43 42 41 40 41 41 44 50 49 47 45 45 45 45 45 45 44 44

ECMWFNIL_sfc_temp_102.txt.gz
Temp
61 61 61 60 60 61 60 61 61 62 62 63 63 63 63 63 64 64 64 64 63 63 63 63 63 63 64 63 63 63 63 63 63 63 63 63 63 63 63 63 63 62
61 60 60 60 60 60 60 59 60 60 61 61 62 61 63 64 65 64 64 63 63 63 64 63 63 63 63 63 63 63 63 63 62 64 63 63 63 63 63 64 63 63
59 59 60 59 58 58 59 59 59 60 60 60 61 62 63 64 64 65 64 63 63 63 63 63 63 63 63 63 63 63 62 62 62 63 63 63 63 62 63 63 62 63
58 59 60 59 58 58 58 59 59 59 60 60 60 62 63 63 63 63 63 64 63 63 63 63 63 62 62 63 63 63 63 62 62 62 62 62 63 63 63 63 62 62
57 58 58 57 58 58 57 58 58 59 59 59 60 60 61 61 61 61 62 62 63 63 62 62 62 62 62 62 63 62 62 62 62 62 62 62 62 62 63 63 63 62
56 57 57 58 58 58 58 58 58 58 58 57 58 59 59 59 59 59 60 61 62 62 62 62 62 62 61 61 61 61 62 62 62 62 62 62 62 62 63 63 63 62
56 56 57 57 57 58 58 57 57 57 56 57 57 56 57 57 57 58 59 59 61 63 62 62 61 61 61 61 61 62 62 62 63 62 62 62 62 62 63 63 62 62
56 56 57 57 57 57 56 56 56 56 56 56 55 56 56 56 56 57 58 59 61 63 63 63 62 62 62 61 61 61 61 62 62 62 62 62 62 62 62 63 62 62
56 56 56 56 56 55 55 55 55 55 56 55 55 55 55 56 57 57 57 59 61 62 63 62 62 62 61 61 61 61 61 62 62 62 62 62 62 62 63 63 62 62
55 56 56 56 55 54 54 54 55 55 56 55 55 55 55 56 57 56 56 58 59 60 61 61 61 61 61 60 61 62 62 62 62 62 62 62 62 62 63 62 62 62
55 55 55 54 54 54 54 55 56 56 56 56 55 55 55 56 56 56 55 56 56 58 59 60 60 61 61 61 62 62 62 62 62 63 63 63 62 62 63 62 62 62
54 54 54 54 54 54 55 56 56 56 56 56 56 54 54 55 54 54 54 54 55 56 57 58 59 60 58 56 56 58 60 62 62 62 63 63 63 63 62 62 62 62
54 54 54 54 55 55 56 56 56 55 55 55 55 54 53 53 53 52 52 53 53 54 55 55 57 57 54 52 52 52 55 59 61 62 62 62 63 63 63 62 61 62
53 54 55 56 56 56 55 55 55 54 54 54 54 53 53 53 53 52 52 52 52 52 53 53 55 55 53 50 49 49 50 54 59 61 61 61 62 62 62 62 62 62
55 56 56 56 56 55 55 54 53 53 54 54 53 53 53 53 53 52 51 51 51 51 51 51 52 53 53 50 46 46 47 48 54 59 61 61 61 61 61 61 61 61
55 54 54 54 54 54 54 54 53 53 53 52 52 52 52 52 52 51 51 50 49 50 50 49 50 51 52 47 45 44 44 45 50 56 60 61 60 60 60 61 61 61
53 52 52 52 53 53 53 53 52 52 52 52 51 51 51 51 51 50 50 49 49 49 48 48 48 50 47 42 42 42 43 44 47 52 59 60 60 60 60 60 60 61
52 51 51 51 51 51 51 51 52 52 51 51 51 50 51 51 50 49 49 49 49 48 47 47 48 48 43 41 41 40 41 43 46 51 58 60 60 59 59 59 59 60
50 50 50 50 50 50 49 49 49 50 50 50 50 50 50 49 49 48 48 48 48 47 46 47 47 45 41 41 40 40 40 41 46 52 58 59 59 59 59 58 58 59
49 49 49 49 49 49 48 47 47 47 49 50 50 50 49 48 48 47 47 47 47 46 45 46 46 43 40 41 42 40 39 40 48 56 58 56 56 56 57 58 59 58
48 47 47 48 48 48 47 46 45 45 47 49 49 49 48 47 47 46 46 46 46 46 45 44 45 41 40 41 43 45 45 46 55 54 52 52 52 52 51 52 54 58
47 47 47 46 47 47 46 45 44 44 45 47 48 48 48 48 47 47 46 45 46 45 44 43 44 40 40 41 42 43 47 52 52 51 50 49 49 49 49 49 50 51
47 46 46 46 46 46 45 44 43 43 44 45 46 47 47 47 46 46 46 45 45 45 44 43 43 41 40 40 41 42 47 50 50 49 49 48 47 47 47 47 47 49
46 45 45 45 45 44 44 44 44 43 43 44 44 45 46 46 46 46 46 45 45 44 45 43 43 42 40 40 40 41 46 49 48 47 47 47 46 47 46 46 47 46
45 45 44 43 43 43 43 43 43 42 42 43 44 45 46 46 46 45 45 45 45 45 46 44 43 43 41 40 40 41 45 48 48 47 46 45 45 45 46 45 45 45
46 45 44 43 42 42 43 42 43 43 42 42 42 44 45 46 45 45 44 44 44 44 45 44 43 43 42 41 41 41 42 46 46 45 44 44 45 44 44 44 44 44

ECMWFNIL_sfc_temp_105.txt.gz
Temp
62 61 60 59 59 60 59 59 59 59 59 59 59 59 59 60 61 61 61 62 62 62 62 62 62 62 63 62 63 63 63 63 63 63 63 63 62 63 62 62 62 62
59 59 59 58 58 57 57 56 57 57 57 57 57 57 59 59 60 60 60 60 61 62 62 62 62 62 62 62 63 63 63 63 63 64 63 63 63 63 62 63 62 63
56 56 56 56 56 56 56 56 56 57 56 57 57 57 58 59 58 58 59 59 59 60 61 61 62 62 62 62 63 63 63 63 62 63 63 62 63 62 63 63 62 63
55 55 56 56 56 56 56 56 56 56 56 55 55 56 57 57 57 56 57 59 58 59 60 61 61 62 62 62 63 62 63 63 63 63 62 62 62 62 62 63 62 62
55 55 56 56 56 56 55 55 54 54 54 54 54 55 55 55 54 55 55 56 57 58 59 60 61 61 62 62 63 62 62 62 63 63 62 62 62 62 62 62 62 62
55 55 56 55 55 54 54 53 53 53 53 53 53 54 54 54 54 54 55 55 56 57 59 60 60 60 60 61 61 62 62 62 62 62 62 62 62 63 63 62 62 61
54 54 54 54 54 54 53 52 53 53 52 53 53 52 53 54 56 55 54 54 55 57 60 61 61 61 61 61 61 61 62 62 62 62 62 62 62 62 63 62 62 62
53 53 53 53 52 52 52 52 52 52 53 53 51 52 53 54 56 54 53 53 55 58 59 59 60 60 61 61 61 61 61 62 62 62 62 62 62 62 62 62 62 62
53 52 52 52 51 51 51 53 54 55 55 54 53 53 54 55 55 54 53 54 55 56 57 57 58 58 59 59 59 60 60 61 62 62 61 61 61 62 62 63 62 62
52 52 51 51 51 51 52 54 55 55 56 55 54 54 53 54 55 54 53 53 53 53 54 55 55 56 58 56 55 55 55 56 59 61 62 62 62 62 62 62 62 62
51 51 51 51 51 52 54 55 54 55 55 54 54 54 54 54 54 53 53 52 51 52 52 52 53 54 55 55 53 53 52 53 54 56 59 61 62 62 63 63 62 62
50 51 52 53 53 53 53 53 54 54 54 54 54 53 53 53 53 52 52 52 52 52 51 51 52 52 54 54 53 51 50 51 51 53 55 58 61 62 63 63 62 62
51 53 54 54 53 52 52 52 53 53 53 52 53 52 52 52 52 52 52 52 51 51 51 51 51 51 52 53 52 51 49 49 49 49 51 54 59 62 63 63 63 62
50 52 53 53 53 51 51 51 51 51 51 51 52 50 51 51 51 51 51 51 51 51 51 51 50 50 51 52 51 50 48 47 47 48 49 51 55 60 62 62 62 62
49 50 50 50 50 49 49 50 51 50 50 50 50 50 51 51 51 51 50 50 50 50 49 50 49 49 50 50 48 47 46 46 46 46 48 50 53 57 61 62 62 62
48 48 48 48 48 48 48 49 50 50 49 49 49 50 50 51 50 50 49 49 48 48 49 48 48 49 50 46 44 44 44 44 45 46 48 50 52 55 59 61 61 61
48 48 48 47 47 47 47 47 47 48 48 48 49 49 49 50 49 48 48 48 48 47 47 47 47 48 44 40 40 42 44 44 44 46 48 50 52 55 59 60 60 61
47 47 46 46 46 46 46 46 46 46 47 47 48 48 49 49 48 47 47 47 47 47 46 46 46 45 40 41 41 42 42 44 45 46 49 52 55 56 56 57 58 59
46 46 45 45 45 45 45 45 44 45 46 47 48 49 48 47 47 47 47 47 47 46 45 46 45 43 40 41 41 42 42 44 48 51 52 52 51 51 51 51 52 54
45 45 44 44 44 44 44 43 43 43 45 48 48 48 47 47 47 46 46 46 46 46 45 45 44 42 40 41 41 42 42 47 52 51 50 50 49 49 48 48 49 50
44 44 44 44 44 43 43 42 42 42 44 46 47 47 46 46 45 45 46 46 46 46 45 44 44 41 40 40 41 41 43 46 50 50 49 48 48 48 47 47 47 48
43 42 42 42 42 42 42 41 42 43 43 45 46 46 47 46 46 46 45 45 46 45 45 44 44 40 40 40 41 41 44 49 49 48 48 47 47 47 47 47 47 47
42 42 42 41 41 41 40 40 40 41 43 45 45 45 45 45 45 45 45 45 45 45 44 43 43 41 40 40 40 41 45 48 48 47 47 46 46 46 46 46 46 47
41 41 40 40 40 40 39 40 41 42 43 44 44 44 44 44 45 45 45 45 44 44 44 43 43 42 40 40 40 41 44 46 47 46 45 45 45 46 46 45 46 47
41 41 40 40 39 39 40 39 40 41 42 44 44 45 45 44 44 43 43 44 44 44 46 43 43 43 41 40 40 40 44 45 45 45 44 44 44 44 45 45 44 45
41 41 40 39 38 39 40 39 40 40 40 41 42 43 43 43 42 41 40 41 42 43 43 43 43 43 42 40 40 40 41 45 44 43 42 42 43 44 43 44 44 43

ECMWFNIL_sfc_temp_108.txt.gz
Temp
58 59 58 57 57 58 57 56 56 56 56 56 55 55 56 57 57 57 57 58 59 59 60 61 62 62 63 63 63 63 64 64 64 64 64 64 63 63 63 63 63 62
56 57 57 56 56 56 55 55 55 55 54 54 54 54 55 56 56 56 56 56 58 58 59 60 61 62 62 62 63 63 63 63 63 64 63 63 63 63 63 63 63 63
55 55 55 54 54 54 54 54 54 54 54 54 54 54 54 55 55 55 55 56 56 56 57 59 61 61 62 62 63 62 63 63 63 64 63 63 63 63 63 63 63 63
54 54 54 54 54 53 53 53 53 53 53 53 53 53 54 54 54 54 54 55 54 55 56 58 60 61 61 61 62 62 62 63 63 63 63 63 63 63 63 63 63 62
54 54 54 53 53 53 53 52 52 52 52 52 52 53 53 53 53 54 53 53 53 54 56 59 61 61 61 61 61 61 62 62 63 63 63 62 63 63 63 63 63 62
53 53 53 53 53 52 52 52 52 52 52 52 52 53 52 53 54 53 52 52 52 53 56 57 58 59 60 60 61 61 61 61 62 63 62 62 62 63 63 63 62 62
51 52 52 52 52 52 52 52 52 54 54 54 54 53 53 53 54 53 52 52 52 53 54 54 54 55 57 58 59 58 58 59 60 61 61 62 62 62 63 63 62 62
51 52 52 52 52 52 52 53 53 54 54 55 54 54 54 54 54 53 53 53 53 53 53 53 53 53 53 55 56 56 56 57 56 56 57 59 61 62 62 63 63 62
51 51 52 52 51 52 53 54 54 54 55 54 54 54 54 54 54 53 53 53 53 53 53 52 52 52 53 53 55 55 54 54 54 54 55 55 57 59 62 63 62 62
51 51 52 51 51 51 52 53 54 54 54 53 53 53 53 54 54 53 53 53 52 52 52 52 52 52 52 53 53 54 53 52 52 52 53 53 54 56 58 60 62 61
50 51 51 51 50 51 51 52 52 52 53 52 52 51 52 53 53 53 53 52 51 51 51 51 51 51 51 52 52 53 53 52 51 51 51 52 53 54 57 58 60 61
50 52 52 51 51 50 50 50 51 51 51 51 52 51 52 52 52 52 52 51 51 51 51 51 51 51 51 51 51 52 52 51 51 50 50 50 52 53 54 56 58 60
49 49 50 50 49 49 49 50 50 50 50 51 52 51 51 51 51 51 51 51 50 50 50 50 50 50 50 50 50 49 48 48 48 48 49 49 50 51 53 55 57 59
48 48 48 49 49 48 48 49 49 50 50 51 52 51 50 50 50 50 50 50 50 50 49 50 49 49 49 48 47 46 46 46 47 47 47 48 49 51 53 55 57 59
47 48 48 48 47 47 47 47 48 49 50 51 51 50 50 50 50 50 49 49 49 49 49 49 48 47 47 46 44 44 46 46 46 46 47 47 48 51 53 55 57 59
47 47 47 46 46 46 45 46 47 49 50 50 50 50 50 50 49 49 49 48 48 48 48 47 47 47 47 44 44 45 46 47 46 47 47 48 49 51 54 56 57 58
46 46 46 45 45 45 45 45 46 48 49 49 49 49 49 49 49 48 48 48 48 47 47 46 46 46 42 40 41 43 48 48 47 47 50 51 51 51 50 51 52 54
46 45 45 45 44 44 44 44 46 48 48 48 48 48 48 48 47 47 48 47 47 47 46 46 45 44 40 41 41 41 45 49 50 50 50 49 49 49 49 49 49 50
45 45 44 44 43 43 44 45 47 47 47 47 47 48 48 47 47 47 47 47 47 46 46 45 44 42 40 41 41 41 42 47 50 50 48 48 48 48 48 47 48 49
44 44 43 43 43 43 44 46 46 46 46 47 47 47 47 46 46 46 46 46 46 46 46 45 44 42 40 40 41 41 41 45 49 49 48 48 47 47 47 47 47 47
43 43 42 42 42 42 43 44 45 45 46 47 46 46 46 45 45 45 46 46 46 46 45 45 44 41 40 40 40 40 41 45 49 48 48 47 47 47 47 47 47 47
42 41 41 41 41 42 42 43 44 44 44 46 46 46 46 46 46 46 45 45 45 45 44 44 44 40 40 40 40 39 42 49 48 47 47 47 47 47 47 47 47 47
41 41 40 40 40 41 42 42 43 43 44 46 45 45 45 45 44 44 45 44 44 44 44 43 44 42 40 40 40 39 44 47 47 46 46 47 46 47 46 47 47 47
41 40 40 40 40 40 40 42 43 43 43 44 43 43 42 43 44 43 43 43 43 43 44 42 43 43 40 40 40 39 43 46 46 45 45 45 46 46 47 46 47 47
40 40 39 39 39 39 39 39 39 40 40 41 41 41 41 41 43 42 43 44 44 43 45 43 42 43 41 40 40 40 43 46 45 45 43 43 44 44 45 45 45 45
40 40 39 39 38 39 39 39 40 40 39 40 41 41 41 42 44 43 43 43 44 43 43 43 43 43 42 40 40 40 40 44 45 43 42 42 43 43 42 43 44 44

ECMWFNIL_sfc_temp_111.txt.gz
Temp
66 66 65 64 64 64 63 63 63 63 63 64 63 64 63 63 63 62 62 63 63 63 63 64 64 65 65 66 67 67 67 68 69 69 68 67 66 66 65 65 66 65
63 63 64 64 63 62 62 62 61 61 61 62 62 63 63 62 62 62 61 61 62 61 62 63 64 65 65 65 65 64 65 66 67 70 68 68 68 67 66 66 67 67
62 62 61 61 60 60 60 61 61 61 62 61 61 61 60 61 60 61 61 61 60 60 61 62 64 65 65 64 63 63 63 64 64 67 67 67 67 67 68 68 68 67
61 61 61 60 60 60 60 60 60 61 61 60 59 59 60 60 60 60 59 59 59 59 60 61 61 62 63 65 65 65 66 66 66 66 65 66 67 67 67 66 66 67
60 61 61 61 61 61 60 60 59 59 59 58 58 59 59 59 59 59 58 58 58 58 59 60 60 60 61 61 63 63 65 65 66 67 65 65 66 66 67 68 68 67
61 62 61 61 60 60 60 60 59 58 58 58 57 58 58 58 58 58 58 57 58 58 58 59 59 59 60 60 60 60 61 61 62 63 64 63 63 64 66 67 67 68
59 60 59 61 60 60 60 60 59 58 58 58 59 57 58 58 58 57 57 57 58 58 58 58 57 57 58 57 58 58 59 59 60 60 60 61 61 61 62 64 65 67
59 60 60 60 60 60 59 59 59 58 59 59 58 58 58 57 58 57 57 57 57 57 58 58 57 57 57 57 57 56 57 58 57 58 58 58 59 60 60 61 62 64
60 60 60 60 59 58 57 58 58 58 59 57 57 57 58 57 57 57 57 57 57 56 57 56 56 56 56 56 55 55 56 56 56 56 56 56 57 58 59 60 60 61
60 60 59 58 57 57 57 57 57 57 57 56 56 57 57 57 57 57 57 56 55 56 56 55 54 54 54 55 54 54 55 54 54 55 55 55 55 56 57 59 59 59
58 58 57 56 56 56 55 56 55 56 56 56 56 55 56 56 57 57 56 55 54 54 54 53 53 53 53 53 53 53 53 53 52 53 54 54 54 54 54 57 58 59
57 57 56 55 55 55 55 55 55 55 55 55 56 55 55 55 55 55 54 54 54 54 53 53 53 53 52 51 51 51 51 52 52 52 52 53 53 54 54 55 56 57
55 55 55 55 55 55 55 55 54 55 55 55 55 54 54 54 54 54 54 54 54 53 53 52 51 51 51 50 50 50 51 52 52 52 52 53 54 55 55 55 56 57
55 56 56 55 56 55 54 54 54 54 54 55 55 54 53 53 53 53 54 54 53 53 52 52 52 50 49 49 49 50 51 53 53 52 52 53 55 56 57 57 58 58
55 54 56 56 55 54 54 53 54 54 54 54 54 54 53 54 54 54 53 53 54 53 53 52 50 48 47 47 47 49 51 53 53 53 53 53 54 55 55 55 55 56
55 55 55 54 54 53 53 53 53 53 54 53 53 53 53 53 53 53 54 54 53 54 53 50 48 48 46 43 44 47 51 53 53 53 52 52 52 51 52 52 53 54
54 54 56 53 53 52 52 53 53 53 53 53 52 52 52 52 52 52 52 53 54 53 52 50 48 47 41 40 41 43 50 52 52 51 51 50 50 49 49 50 52 53
53 54 55 52 52 52 52 53 53 53 53 52 52 51 52 52 52 53 53 53 53 54 52 51 49 44 40 41 41 41 44 51 52 51 50 49 49 49 49 50 51 52
53 54 53 52 52 52 52 53 53 52 52 52 51 51 52 52 52 52 52 53 53 53 52 51 50 42 40 40 41 41 41 48 52 51 50 50 51 50 50 50 51 52
53 54 51 51 52 52 52 52 52 51 51 51 52 52 53 54 53 52 52 52 52 53 53 52 49 42 40 40 40 40 41 46 53 52 51 51 51 51 50 50 50 50
53 53 52 52 52 52 52 52 51 52 51 52 52 53 54 53 52 52 52 52 53 53 53 51 48 40 40 40 40 40 41 47 53 52 52 51 51 51 51 50 50 50
52 52 52 53 53 52 52 51 51 51 51 52 52 52 52 53 53 53 52 52 52 52 52 51 49 40 40 40 40 39 43 54 53 51 50 50 50 50 50 51 51 50
51 51 51 52 52 51 51 50 51 50 51 53 52 52 51 51 51 52 52 51 51 51 51 52 51 44 39 40 40 39 47 54 53 52 50 49 48 49 50 50 49 49
51 52 51 51 51 50 50 50 51 52 51 52 52 51 51 51 52 52 52 51 50 50 50 51 51 45 40 40 40 39 46 52 53 52 50 49 49 49 49 49 49 47
51 51 51 50 50 50 50 50 50 51 52 53 52 53 52 53 53 52 51 52 51 50 48 50 51 48 41 40 40 40 47 54 52 51 49 47 47 46 48 48 47 48
50 50 50 50 50 50 50 50 52 52 52 52 52 53 53 53 53 52 51 51 52 52 50 50 50 50 46 39 40 40 41 51 51 49 46 45 45 44 44 45 47 48

ECMWFNIL_sfc_temp_114.txt.gz
Temp
72 72 70 70 70 70 69 69 70 69 69 70 70 72 71 70 69 68 68 69 69 68 69 70 71 71 72 73 73 73 74 73 74 74 74 74 73 73 73 73 73 73
69 69 69 70 69 69 69 69 68 69 69 68 69 70 70 68 67 67 66 66 67 67 67 67 68 69 70 71 71 71 72 72 72 74 73 72 72 73 72 72 72 73
69 68 68 68 68 67 67 68 69 69 69 68 67 67 66 67 66 66 66 64 65 65 65 66 66 66 67 68 69 69 70 70 70 72 71 71 71 71 72 72 72 72
68 69 68 68 68 68 68 68 68 68 67 66 65 65 65 64 65 65 64 64 64 65 65 65 65 66 66 67 67 67 68 69 70 71 70 70 71 71 70 71 71 71
68 69 69 69 68 68 68 67 66 65 65 64 64 64 64 64 64 64 64 65 65 65 65 65 65 65 65 66 65 64 65 66 67 67 66 66 68 70 70 70 69 70
69 70 70 69 69 68 67 66 65 65 65 64 63 64 64 64 64 63 64 64 65 65 65 65 65 64 63 64 64 64 64 64 64 64 64 64 65 67 68 69 69 69
67 67 67 69 67 67 66 65 64 64 65 65 65 62 63 63 63 64 64 64 64 64 64 63 63 63 64 65 65 64 64 63 62 62 61 62 62 63 65 67 68 69
66 67 67 67 64 64 64 65 64 63 63 64 63 63 63 63 63 63 63 64 64 64 63 63 63 64 64 64 63 62 63 62 60 60 60 60 60 61 62 63 64 66
66 65 65 63 62 62 62 62 61 62 63 62 62 62 62 62 62 63 62 62 62 62 63 62 63 64 63 62 62 61 61 61 60 60 58 57 58 60 62 62 62 63
64 64 62 62 61 61 60 60 61 61 62 62 61 61 60 61 61 62 62 61 61 62 62 62 62 63 63 63 62 61 61 61 61 60 58 58 58 59 60 60 60 61
63 63 62 61 60 60 59 60 61 61 60 61 61 60 61 61 61 61 61 61 60 61 61 61 61 62 61 61 61 61 61 60 61 60 59 59 58 57 57 58 58 59
62 62 61 61 60 59 59 59 60 60 60 60 61 61 61 61 61 60 60 61 62 62 61 61 61 60 60 59 60 61 60 59 60 59 59 59 59 59 59 59 59 59
61 61 61 61 59 59 59 60 60 60 60 59 60 60 61 61 61 61 61 62 63 63 62 60 59 58 57 57 58 60 59 60 60 60 60 59 58 58 58 58 57 57
61 61 60 59 59 59 59 59 59 59 59 59 60 60 60 61 61 61 62 63 63 63 61 59 57 55 53 54 55 57 58 60 60 60 60 59 58 57 57 57 58 57
61 61 60 59 59 58 58 58 59 59 60 60 60 60 60 62 62 62 63 64 64 62 60 57 53 51 50 49 50 53 59 60 60 60 59 58 57 57 59 60 61 60
62 60 60 59 59 58 58 58 59 59 60 60 60 61 61 62 62 62 63 63 62 62 60 56 52 51 46 43 43 49 56 59 58 58 59 58 58 59 60 61 62 61
62 60 59 58 58 58 59 60 60 60 61 61 60 61 60 61 61 61 61 62 62 61 59 57 53 49 41 40 41 41 51 58 58 58 58 58 59 58 58 60 60 61
62 60 59 58 58 59 59 61 61 61 61 60 59 59 60 61 60 60 60 61 61 61 58 56 54 44 39 40 41 41 43 55 60 59 58 58 58 58 58 58 58 59
63 60 60 59 60 60 60 61 61 60 60 60 59 60 60 59 59 59 59 60 61 60 58 56 53 42 40 40 41 40 40 49 61 59 59 58 58 58 58 57 57 58
63 61 60 60 61 61 61 61 60 59 59 60 60 60 60 59 59 58 58 59 60 59 58 56 52 43 40 40 41 41 40 47 61 60 59 58 58 58 57 57 56 57
63 61 61 61 61 61 61 60 59 59 60 61 61 61 60 60 60 59 58 59 59 59 58 56 51 40 40 40 40 41 40 51 61 60 59 58 57 57 57 56 55 56
61 61 61 61 61 61 61 60 59 59 59 60 60 60 59 60 62 61 59 58 58 58 58 56 53 40 40 40 40 39 43 62 61 60 58 57 56 56 56 56 55 53
63 61 61 61 61 61 61 60 59 59 60 62 60 59 59 59 59 59 59 59 59 59 58 56 54 44 39 40 40 39 48 62 60 60 59 57 55 56 56 56 54 52
62 62 60 60 60 60 59 59 60 61 61 61 60 59 59 59 60 59 59 58 57 57 58 57 54 47 39 40 40 39 45 60 60 59 57 56 56 56 56 55 54 49
60 60 60 60 60 59 59 59 60 60 61 61 61 61 60 61 61 60 59 58 57 56 52 55 55 50 41 40 40 40 47 59 59 59 56 55 55 55 56 56 55 53
58 59 60 61 60 59 60 60 60 60 60 60 61 62 61 61 60 59 58 58 58 57 55 56 55 54 47 39 40 41 40 55 59 56 54 54 55 55 55 56 56 56

ECMWFNIL_sfc_temp_117.txt.gz
Temp
73 73 72 72 72 72 71 71 72 72 72 73 74 74 74 72 72 70 70 70 70 70 69 69 70 69 70 71 72 73 74 74 75 75 75 74 74 73 73 73 73 73
72 72 72 71 70 71 70 71 71 72 71 71 71 72 72 70 69 69 68 68 69 69 69 69 69 69 69 70 70 70 71 72 72 74 73 72 73 73 71 72 72 73
70 70 70 69 69 69 69 70 70 70 70 70 70 69 68 68 67 68 68 67 68 68 68 68 68 69 69 69 69 69 70 69 69 71 71 70 71 71 71 72 73 72
70 69 69 70 70 69 70 71 71 70 70 69 67 67 68 67 67 67 68 68 67 67 68 68 67 68 68 68 67 68 68 69 70 69 68 69 68 69 69 70 70 71
69 70 71 71 70 70 70 69 68 68 67 67 67 67 67 67 67 67 67 68 67 67 68 67 66 67 67 67 68 67 67 67 68 67 66 65 66 67 67 67 67 67
71 72 72 71 71 70 69 68 68 68 68 66 66 67 66 67 66 66 67 67 68 68 67 67 67 68 67 67 67 67 67 66 66 65 65 64 65 65 65 65 65 65
68 69 69 70 69 68 67 66 66 67 67 67 67 65 66 65 65 66 67 67 68 67 67 67 67 66 66 66 66 66 66 65 65 65 64 64 64 63 65 65 65 65
68 68 68 67 67 66 66 66 66 66 66 67 64 64 65 66 65 65 65 66 66 67 67 68 67 68 67 66 66 64 64 64 64 64 63 63 63 63 63 63 62 63
66 66 66 65 64 64 64 64 64 65 66 64 64 64 64 64 64 64 64 66 66 66 67 67 67 67 66 65 65 64 63 63 63 63 62 61 61 62 62 63 62 62
65 65 64 63 62 62 62 62 63 64 65 64 64 64 64 64 64 65 66 66 66 67 67 67 66 65 65 65 64 64 64 63 63 63 63 63 62 61 61 61 61 60
64 64 62 61 61 62 62 62 62 63 64 65 64 64 65 64 64 65 66 67 66 67 66 66 64 63 62 62 62 63 63 63 63 63 63 63 62 60 60 59 59 59
64 63 62 61 62 62 61 62 63 63 63 63 65 64 63 64 64 65 66 67 68 67 65 63 62 60 59 58 59 61 61 63 63 63 63 62 61 61 60 60 60 60
63 62 61 61 61 61 62 62 62 62 63 63 64 64 65 65 65 66 66 67 67 65 63 61 60 58 56 56 57 59 59 61 62 61 61 61 62 63 63 64 64 62
62 61 61 61 61 62 62 62 63 62 62 63 64 64 64 66 67 67 67 67 65 64 62 60 59 57 55 54 56 58 58 60 61 61 61 62 62 63 64 63 63 63
61 61 61 61 61 61 61 61 62 63 63 63 64 64 64 66 67 67 67 66 65 63 62 60 57 53 52 50 51 55 57 59 61 62 61 61 62 63 63 63 63 63
61 60 61 61 61 61 62 62 62 63 63 63 64 64 65 65 65 65 66 64 63 62 61 59 57 54 47 42 43 49 54 59 62 62 62 62 61 61 62 62 63 63
62 62 62 61 62 62 63 63 63 63 63 62 62 63 62 63 64 63 63 63 63 61 59 57 55 51 40 41 41 42 50 58 62 61 61 61 61 60 60 60 61 63
64 64 63 62 63 63 64 64 63 62 62 62 62 61 61 62 62 62 62 62 62 61 59 57 56 45 39 41 41 40 43 52 62 60 60 60 60 59 59 58 58 59
65 64 63 63 64 64 63 64 63 62 62 61 61 62 62 61 61 61 61 62 62 61 58 57 55 44 40 40 41 40 41 46 63 60 60 59 58 58 58 57 57 57
65 65 64 64 64 64 63 63 63 62 62 62 62 63 62 61 61 60 60 60 61 61 59 57 54 43 40 40 41 40 41 43 63 60 59 59 58 58 57 56 56 56
66 65 64 64 64 63 63 63 62 62 63 64 63 63 63 62 61 61 60 60 61 61 59 56 53 41 40 40 41 41 40 46 62 59 59 58 57 57 57 56 56 56
65 65 64 64 63 63 62 62 61 61 61 63 64 63 62 63 62 62 61 61 61 60 58 56 53 41 40 41 40 41 42 61 61 60 58 58 57 58 58 57 57 56
66 65 63 63 63 62 62 61 61 63 63 63 62 61 61 61 60 60 61 60 60 59 58 56 55 45 40 41 41 40 47 63 62 61 59 58 58 58 59 58 55 56
66 66 65 63 63 62 61 61 63 63 63 63 62 62 61 61 61 60 60 59 58 58 58 56 55 48 41 41 41 41 46 61 62 60 59 59 59 59 59 59 55 50
65 64 64 63 62 62 62 62 62 61 62 63 63 63 62 63 62 61 60 60 59 58 54 56 56 51 43 41 41 42 47 60 62 61 59 59 59 59 60 59 60 56
63 63 62 61 62 62 62 61 62 63 63 64 64 65 63 63 62 61 60 59 59 58 57 57 56 54 49 41 42 43 42 55 61 59 59 59 59 59 59 59 59 59

ECMWFNIL_sfc_temp_120.txt.gz
Temp
70 70 69 68 68 68 68 69 69 69 69 69 68 68 67 67 68 67 66 67 67 66 66 66 67 66 66 66 66 66 67 67 67 68 67 66 66 66 66 66 66 67
69 69 69 68 68 68 68 68 68 69 68 67 67 66 66 65 66 66 66 66 67 66 67 66 65 65 65 65 65 65 65 65 65 68 65 65 64 65 64 64 65 65
68 68 68 67 66 67 67 68 68 67 66 66 66 66 65 66 65 66 67 66 65 65 65 65 65 65 65 65 65 65 65 64 64 65 64 63 64 63 63 64 64 63
68 68 67 67 68 68 68 67 67 66 66 65 65 66 67 66 67 66 66 66 65 65 64 64 65 66 66 66 66 65 66 65 65 64 63 64 64 64 63 63 63 64
67 68 68 68 68 69 68 67 66 65 65 65 65 65 65 65 65 66 65 65 65 65 64 65 66 65 64 64 64 63 64 63 64 64 63 63 63 63 63 63 63 62
69 70 70 69 68 67 67 67 66 66 65 64 64 65 65 65 65 65 65 64 64 64 64 64 65 64 64 64 63 63 62 62 63 63 62 62 62 63 63 63 62 61
67 67 67 68 67 66 65 65 65 65 65 64 64 64 65 64 64 64 65 64 65 65 65 64 64 63 63 63 63 63 63 63 63 63 62 62 62 62 62 62 61 61
66 66 66 65 64 64 64 64 64 64 64 63 62 63 63 63 63 63 64 65 64 65 64 64 63 63 62 62 62 62 62 62 62 62 61 61 61 60 60 60 59 59
64 64 64 63 62 62 63 63 63 63 64 62 62 62 63 63 63 64 65 65 65 64 63 62 60 60 60 60 60 60 61 61 62 61 61 60 59 59 59 59 59 59
63 63 62 61 60 61 61 62 62 63 64 63 63 63 62 63 64 66 65 64 63 62 61 60 58 57 57 57 58 59 60 61 61 61 60 60 59 60 60 60 60 59
61 61 60 60 60 60 60 61 62 62 63 63 62 62 63 64 64 65 64 63 60 60 59 58 56 55 55 56 58 59 59 60 60 60 60 60 60 61 62 61 60 59
60 60 60 60 60 60 61 61 62 62 63 63 64 63 63 64 64 64 64 62 61 59 58 57 55 54 54 55 57 59 59 59 60 60 60 60 60 61 61 60 60 60
60 60 60 60 60 60 61 61 61 62 63 62 63 64 64 64 65 63 62 61 61 59 57 55 54 54 53 52 53 56 57 58 60 60 60 60 61 61 61 60 61 61
60 60 60 60 61 61 61 61 61 61 62 62 63 63 64 65 64 63 62 61 60 59 57 56 54 53 50 48 50 52 54 55 60 59 59 59 59 60 59 59 59 60
59 60 60 60 61 60 60 61 61 62 63 63 63 63 63 64 64 63 61 60 59 58 56 55 53 50 47 45 45 48 51 54 59 59 59 58 57 57 57 57 57 57
59 60 60 60 60 60 61 61 61 61 61 61 62 62 62 62 63 62 61 59 57 57 56 54 51 48 45 43 43 45 49 53 58 58 58 57 56 55 55 55 55 55
60 60 61 60 60 60 60 61 61 61 61 60 60 60 60 61 61 61 60 59 57 55 54 53 50 46 42 41 41 42 47 51 57 57 57 56 55 55 54 53 54 55
61 61 61 61 62 62 62 62 61 61 60 60 59 59 59 60 60 60 60 58 57 56 54 53 50 43 40 41 42 41 43 49 58 57 56 56 55 55 54 53 53 53
62 62 62 62 61 62 61 61 61 60 60 59 59 59 59 59 59 58 58 58 57 55 53 52 49 42 41 41 42 41 41 46 58 56 56 55 55 55 54 53 52 52
62 62 61 61 61 61 61 61 60 59 59 60 60 59 58 58 58 58 58 57 56 54 53 51 48 42 41 41 42 41 41 44 58 56 55 56 55 55 54 52 52 51
63 62 61 62 62 62 61 61 61 60 60 60 59 59 58 58 58 57 56 56 55 54 53 51 48 41 41 41 42 42 41 46 58 56 55 55 54 55 53 52 52 52
63 61 61 61 61 61 60 59 59 59 59 58 58 58 58 58 57 57 56 56 55 54 52 51 49 41 41 42 42 41 44 57 57 55 54 54 54 54 53 52 52 52
62 61 60 60 61 60 59 59 59 58 58 59 57 57 56 56 55 55 56 55 54 54 52 50 50 44 41 42 42 42 47 57 56 56 55 54 54 54 53 52 53 53
62 62 61 60 60 60 59 59 59 59 59 59 58 56 56 56 56 55 55 55 54 53 52 50 50 47 42 42 43 43 47 55 57 56 54 54 54 54 54 52 52 54
62 62 61 61 60 59 59 59 58 58 59 59 58 58 57 57 57 55 54 54 54 53 53 52 50 49 44 42 43 43 47 54 55 54 54 53 53 53 53 54 53 53
61 61 60 60 60 59 59 58 59 58 58 58 58 59 58 58 57 56 54 53 53 53 53 52 51 50 47 42 43 44 44 52 54 52 50 52 53 54 53 52 52 53

ECMWFNIL_sfc_temp_123.txt.gz
Temp
64 64 63 63 63 63 63 63 63 62 61 61 60 60 60 60 61 61 61 61 61 61 61 61 60 59 60 59 59 60 61 60 60 60 60 59 59 59 59 59 59 59
64 64 63 63 62 62 62 63 62 61 60 60 60 60 60 60 60 60 61 61 62 61 60 59 58 59 59 59 59 59 59 59 59 61 59 59 60 61 60 59 60 60
63 62 62 62 62 62 62 62 61 61 60 60 60 60 60 60 59 62 62 59 58 58 58 58 57 59 59 60 60 60 59 58 58 60 61 61 61 61 61 62 61 61
62 62 62 62 62 61 61 61 61 60 61 60 60 61 62 62 61 60 61 64 60 59 57 57 58 58 59 60 61 60 58 58 60 61 61 61 62 61 61 61 61 61
62 62 62 62 62 62 62 61 60 60 59 59 60 60 61 61 62 62 61 60 57 57 57 59 60 59 59 60 59 57 59 60 62 62 61 60 61 61 60 60 59 59
62 62 62 61 61 61 60 60 60 60 59 59 60 62 62 62 61 62 61 58 59 60 60 59 58 57 58 60 59 60 60 60 60 61 60 59 60 60 60 59 59 59
60 60 60 61 60 61 60 60 60 59 59 59 60 60 61 61 61 59 59 60 60 58 56 55 55 54 55 57 58 59 60 60 60 60 59 59 59 59 60 59 59 59
59 59 60 60 59 59 59 59 59 58 59 59 59 60 60 59 58 58 59 58 57 55 54 54 54 53 53 54 56 57 58 59 59 59 58 58 58 58 59 59 58 57
58 58 58 58 58 57 58 58 59 59 60 59 59 58 58 57 56 59 58 56 55 54 53 53 52 52 52 53 55 57 57 58 58 58 57 57 57 58 58 59 58 57
57 57 57 57 56 57 58 59 59 59 60 60 59 58 56 55 59 58 56 55 54 53 52 52 52 52 53 55 56 57 57 57 57 57 57 57 57 58 58 58 57 56
57 58 57 57 57 58 58 59 59 60 60 59 58 56 56 59 59 57 55 54 52 51 51 51 51 50 50 51 52 53 54 55 57 57 57 56 55 55 56 55 56 55
56 57 57 58 58 58 59 59 59 59 58 57 56 54 56 57 57 56 55 53 52 51 51 50 49 47 47 47 48 49 50 52 57 57 57 55 54 53 53 53 53 54
57 57 57 57 57 58 58 58 58 57 56 56 57 57 57 56 55 54 54 53 52 51 50 49 47 46 45 45 46 47 49 51 56 56 55 54 53 52 52 52 52 52
57 58 58 58 58 58 57 57 57 55 55 55 57 58 57 56 55 54 53 52 51 50 49 48 46 45 44 43 45 46 47 51 54 54 53 53 52 51 51 51 51 51
57 57 58 58 58 58 57 57 56 55 56 56 56 56 57 56 55 54 52 51 51 50 48 47 45 44 44 42 43 45 46 51 53 52 51 50 50 50 50 50 50 50
57 57 58 57 57 57 56 57 57 57 56 55 55 55 55 55 54 53 52 51 50 49 48 46 45 44 44 43 44 44 46 51 52 51 50 49 49 49 49 49 49 49
57 57 57 56 56 56 57 58 57 56 55 54 54 54 54 54 53 52 51 50 49 47 46 46 44 44 42 41 41 44 49 50 50 49 49 49 49 48 47 48 48 48
57 56 55 55 56 57 57 56 55 55 54 54 53 53 54 54 53 51 50 49 48 47 45 45 44 43 41 42 41 41 47 51 49 49 49 48 48 47 47 46 46 47
56 55 56 56 55 55 55 55 55 54 53 53 53 54 53 52 51 50 49 49 48 46 44 44 43 42 41 42 41 41 43 49 49 48 49 47 47 47 46 45 45 46
55 55 55 55 55 55 55 55 54 53 52 52 53 53 52 51 50 49 48 48 47 46 44 44 43 42 41 42 42 42 44 48 48 49 48 48 47 46 45 45 45 45
55 55 54 55 55 54 54 53 52 51 51 50 50 50 50 49 49 48 48 47 46 45 45 44 43 42 42 42 42 44 46 47 48 50 49 47 46 45 45 45 45 47
55 54 53 53 53 52 52 52 52 52 51 51 51 50 50 50 49 48 47 46 45 44 44 43 44 42 42 42 43 43 46 50 47 48 47 46 45 46 45 45 45 45
55 54 53 53 53 53 52 52 51 51 50 51 50 49 49 48 47 47 47 46 45 44 43 43 43 43 42 43 44 45 47 49 49 48 47 45 44 45 45 44 46 48
54 54 53 53 52 51 51 50 50 50 50 51 49 49 48 47 47 47 46 45 44 44 45 44 44 44 43 44 44 45 48 49 48 47 46 46 44 44 45 44 47 54
54 53 52 51 51 51 51 50 50 51 51 50 49 49 48 47 47 45 45 44 45 46 51 46 45 45 43 43 44 44 48 48 47 45 44 44 44 43 43 44 45 49
53 52 52 52 51 51 51 51 51 51 50 50 49 50 49 48 47 46 45 44 44 45 47 46 45 43 43 42 43 43 45 47 45 45 44 42 42 44 46 44 45 45

ECMWFNIL_sfc_temp_126.txt.gz
Temp
63 63 62 62 61 61 60 59 59 59 58 58 58 58 58 58 59 58 58 58 58 57 57 57 58 58 59 58 58 58 57 57 58 58 57 58 58 58 58 58 58 58
62 62 61 61 60 60 59 59 59 59 58 57 57 57 57 58 58 58 57 57 57 57 57 57 57 57 57 57 57 57 56 57 58 61 60 60 60 59 59 59 59 59
61 61 60 60 59 58 58 58 58 58 58 57 57 57 58 58 58 58 58 57 56 56 56 56 56 57 57 58 58 57 56 56 58 61 60 59 59 59 59 59 59 58
60 60 60 59 59 58 58 58 57 57 57 57 56 57 58 59 58 57 58 58 56 56 55 55 55 56 57 57 57 57 58 59 60 60 59 58 59 59 58 58 58 57
60 60 60 59 59 59 58 58 57 57 57 56 57 57 58 57 57 57 56 56 55 54 54 54 54 55 55 55 56 57 59 59 60 59 57 57 58 58 58 58 56 53
61 61 61 59 58 57 57 57 56 56 56 56 56 57 57 57 56 55 54 53 53 53 53 53 53 54 55 56 58 58 58 58 58 56 56 56 57 58 58 56 54 52
59 59 59 58 57 57 56 56 56 56 56 56 57 57 57 56 55 54 53 53 53 53 52 51 52 52 54 55 56 56 56 55 55 55 55 55 56 56 56 55 52 51
57 57 56 57 56 56 55 55 55 55 56 56 56 55 55 54 53 53 52 52 51 51 51 51 51 51 52 53 53 53 53 56 55 55 53 52 52 53 55 54 52 50
56 56 56 56 55 55 55 55 55 55 56 55 54 54 55 54 53 52 51 51 51 50 50 49 49 50 50 51 50 51 52 54 53 52 51 50 50 50 52 52 51 49
55 55 55 55 54 54 54 54 54 55 55 54 54 54 53 53 52 52 51 50 49 49 48 48 48 48 48 48 49 50 52 52 52 52 51 50 49 49 49 50 49 48
55 56 56 55 54 54 54 55 54 54 55 55 54 53 53 52 52 51 50 49 48 47 47 46 46 46 47 47 48 49 52 52 52 51 50 49 48 49 51 49 48 47
56 57 57 57 56 55 55 56 55 54 53 54 54 52 52 52 51 51 50 48 48 47 46 45 45 45 45 46 48 50 51 51 51 50 49 48 48 48 48 48 47 47
57 57 57 57 56 54 54 53 52 53 54 53 53 52 51 50 50 49 49 48 47 46 45 45 44 44 45 46 48 50 50 50 50 49 48 48 47 47 47 46 46 47
56 56 56 55 53 53 52 52 52 54 55 54 53 52 51 51 50 49 48 48 47 46 45 45 44 44 45 46 48 49 50 49 49 48 47 46 46 46 46 46 46 46
55 55 55 55 54 53 53 53 54 54 54 54 53 52 52 51 50 49 48 47 46 45 44 45 44 44 45 46 47 48 48 48 47 47 46 45 45 45 45 45 45 46
56 57 56 55 53 53 53 53 53 54 53 53 52 51 50 50 49 48 47 46 45 45 44 44 43 44 46 47 49 48 47 48 47 46 45 44 45 44 45 45 45 44
55 55 55 53 53 54 53 53 53 53 52 51 50 50 49 49 47 46 45 45 44 44 43 43 43 44 44 44 45 48 48 46 46 45 44 44 43 43 44 45 44 44
54 54 53 53 54 55 54 53 52 51 51 50 49 49 48 47 46 45 44 44 44 43 43 43 43 44 42 44 45 46 48 47 46 46 45 43 43 43 43 43 44 44
54 54 54 54 55 54 54 53 51 51 50 49 48 48 47 46 45 45 44 43 44 43 42 42 41 43 42 43 44 44 45 46 45 43 44 43 42 43 42 42 42 45
54 54 54 54 54 53 52 51 50 49 49 49 48 47 46 45 44 43 43 43 43 43 42 42 41 43 42 43 43 43 44 45 44 43 43 43 44 44 43 42 42 42
54 54 54 54 54 52 50 49 48 47 48 48 47 47 45 44 43 43 43 42 42 43 43 42 42 41 41 42 42 43 43 44 43 44 43 42 42 42 42 42 42 44
54 53 53 52 50 49 48 47 47 48 47 47 47 45 44 43 43 43 42 42 42 43 43 42 41 42 43 43 43 43 44 46 42 41 42 41 40 41 42 42 42 43
54 53 51 49 49 49 47 47 47 47 46 47 45 44 43 42 42 42 41 42 43 43 44 43 43 43 42 43 43 44 44 44 42 41 41 40 40 41 42 43 43 45
53 51 50 50 49 48 47 47 47 46 46 47 45 43 42 42 42 42 42 43 44 45 45 43 41 42 43 43 43 43 45 43 41 41 39 39 41 42 42 43 45 51
52 51 50 49 49 48 48 47 46 46 46 46 45 44 43 43 44 44 44 44 44 44 48 43 41 43 42 42 42 43 44 41 42 39 40 39 40 42 42 42 43 45
51 51 50 50 49 48 48 47 47 46 45 45 45 44 43 42 43 43 42 40 40 42 43 41 41 40 41 41 42 42 43 42 41 40 40 39 39 43 42 41 41 42